ECMWFFLT1_250_spd_021.txt.gz
Wind_Speed
22 23 25 26 25 25 25 26 27 28 29 29 30 30 31 32 32 33 33 33 34 34 34 33 33 34 34 35 36 36 37 37 37 37 37 37 37 37 38 39 40 40 41 41 40 36 32 34 35 35 38 40 39 39 41 41 41 41 43 45 47 49 51
26 27 28 29 29 28 28 29 30 31 31 32 32 32 33 33 34 35 35 35 35 35 35 35 35 35 35 37 38 38 39 39 38 38 38 38 38 37 37 37 38 39 40 41 41 37 34 35 36 37 39 41 42 42 42 41 42 44 45 47 49 51 52
30 30 30 31 32 31 31 32 33 34 34 34 34 35 35 35 35 36 36 36 36 36 37 36 36 37 38 39 40 40 41 40 40 39 39 39 38 37 36 37 38 39 40 42 40 36 34 35 37 39 41 43 44 44 41 41 44 45 46 48 51 53 53
33 33 33 33 33 33 34 34 35 35 36 36 36 36 36 36 37 37 38 38 38 38 39 39 39 39 40 41 42 42 42 42 42 41 40 40 39 38 38 38 40 40 41 42 41 37 35 35 36 38 41 44 45 44 42 43 46 47 48 50 52 53 54
36 35 35 34 34 34 35 35 36 37 37 38 38 38 38 39 39 40 40 40 41 41 41 41 41 41 42 43 43 44 44 43 43 42 41 41 41 41 40 41 42 42 43 44 44 41 37 37 38 40 43 44 45 45 43 44 47 49 51 51 51 54 56
38 37 37 36 36 36 36 36 37 38 39 40 40 40 41 41 42 42 42 43 43 43 43 42 42 43 43 44 44 44 44 44 44 43 43 43 43 43 43 43 44 44 44 45 46 44 41 41 43 44 44 44 45 45 44 46 48 49 51 52 53 56 58
41 40 39 38 38 38 38 38 39 40 41 41 42 43 44 44 44 44 44 44 44 44 44 43 44 44 44 45 45 45 45 45 46 45 44 44 44 44 45 46 45 45 46 47 47 46 45 45 45 45 44 44 44 44 44 47 49 50 53 55 56 58 59
43 42 41 40 40 40 41 41 42 43 43 43 44 45 46 46 46 45 45 45 44 44 44 44 45 45 45 46 45 45 45 46 47 46 46 46 46 46 47 47 47 47 48 48 48 47 46 46 47 48 46 44 43 42 44 47 50 53 55 57 57 58 58
45 45 44 43 43 44 44 44 45 45 45 45 46 47 48 48 47 46 46 45 45 45 45 46 46 47 47 47 46 46 47 48 48 48 48 47 47 48 48 48 48 48 49 50 50 49 48 47 48 48 46 44 43 43 45 49 51 53 54 56 56 57 57
48 48 47 47 47 47 47 47 48 48 48 48 48 49 49 49 48 48 47 47 46 46 47 48 48 49 49 48 48 48 49 49 50 50 49 50 50 50 50 50 50 50 50 50 50 50 49 47 47 47 46 44 43 44 46 49 49 50 52 54 55 57 58
51 50 49 50 51 51 50 50 50 50 51 51 51 50 50 49 49 48 48 48 48 48 49 50 50 51 51 50 50 50 50 51 52 52 52 52 52 52 52 52 52 52 51 50 50 50 50 50 50 49 46 44 45 46 47 48 49 50 52 54 56 57 58
52 52 52 52 53 53 52 52 52 53 53 53 53 52 51 50 50 49 49 49 49 50 51 52 52 53 52 52 52 52 52 53 53 54 54 54 55 55 53 53 52 52 51 51 52 53 53 54 53 51 47 45 46 47 47 49 51 53 55 57 58 59 59
52 53 53 53 54 54 54 54 55 56 56 55 54 53 52 51 51 51 50 50 51 52 53 53 54 54 54 54 55 54 55 55 55 55 55 56 57 56 53 52 52 51 51 52 54 55 55 52 50 50 48 47 49 51 52 55 57 59 62 63 63 63 63
52 53 54 54 54 55 55 56 57 58 58 57 56 55 54 53 53 53 53 53 53 53 54 55 56 56 57 57 57 57 57 56 55 55 54 55 57 57 54 51 49 51 54 53 52 52 51 48 47 48 50 53 56 57 58 60 62 65 68 69 69 68 68
53 54 54 55 55 56 56 57 59 60 60 58 57 57 56 56 56 56 56 55 55 55 56 57 57 58 59 60 60 59 58 57 55 54 53 51 52 53 52 50 51 54 55 53 50 50 50 50 50 52 57 59 59 59 59 62 65 68 71 73 74 75 76
55 55 55 56 57 57 57 59 61 61 61 60 59 59 58 58 58 58 59 58 58 58 58 59 60 61 61 61 61 61 59 57 55 54 51 49 47 45 45 48 53 55 54 52 53 53 54 54 54 56 60 61 60 61 62 64 68 71 75 78 81 82 83
57 57 57 57 58 58 59 61 62 62 62 61 61 61 61 60 60 61 61 60 61 61 61 61 62 63 63 63 62 61 60 57 55 54 51 49 46 41 40 43 49 54 56 54 55 56 55 55 56 58 61 62 63 64 66 70 74 77 81 85 86 87 88
59 59 59 58 59 60 62 63 63 63 63 63 63 63 64 64 64 64 63 62 63 63 63 63 64 64 64 62 61 61 59 57 56 55 53 51 48 43 40 38 41 51 56 53 53 57 56 55 57 61 64 66 68 70 74 79 81 84 87 88 88 90 92
60 60 60 60 60 62 63 64 64 64 64 64 65 66 67 68 68 67 66 65 65 65 64 64 65 64 63 61 60 59 58 57 57 57 56 54 51 48 44 39 39 46 51 50 53 55 55 57 62 67 70 72 75 78 82 84 86 88 90 90 91 93 95
62 63 62 62 63 64 65 65 65 65 65 66 67 68 69 70 71 70 70 69 67 66 65 64 64 63 61 60 59 58 58 58 59 60 59 58 55 53 51 48 44 44 46 53 59 60 60 64 69 72 76 78 81 84 86 88 89 91 92 93 95 96 96
65 65 65 64 65 66 66 67 67 67 67 68 69 70 71 71 72 73 72 71 70 68 65 64 62 61 59 58 58 58 59 61 62 63 63 61 60 58 57 55 51 46 47 54 61 64 67 72 74 78 82 84 85 88 89 91 92 92 93 94 95 96 96
67 67 67 67 66 67 67 68 68 69 69 71 71 71 72 73 74 74 74 73 71 68 66 64 62 60 59 58 59 59 61 63 64 66 67 66 64 63 62 61 58 54 53 57 61 65 70 73 76 79 82 84 86 88 90 91 92 93 94 93 93 93 90
70 70 70 69 68 69 69 69 70 71 72 73 73 73 73 73 74 74 74 73 71 69 66 64 62 61 60 60 61 61 62 65 67 69 70 70 69 67 66 65 64 62 60 62 64 66 69 71 74 78 80 81 84 86 88 90 92 92 91 88 86 83 80
73 73 73 72 71 70 70 71 72 73 73 74 74 73 73 73 74 74 73 73 71 69 66 64 63 62 62 63 63 64 65 67 69 71 72 73 72 69 68 67 68 66 64 63 63 64 66 69 72 75 76 78 80 83 85 87 88 87 85 81 78 76 75
74 74 74 73 72 72 71 72 73 74 74 74 73 73 73 73 73 73 72 71 70 68 66 65 64 64 65 66 66 67 68 69 70 72 73 73 72 70 69 68 67 66 64 63 63 64 66 68 70 72 74 76 79 81 81 80 79 77 76 74 73 72 71
74 74 74 74 73 73 73 73 75 75 74 73 72 73 73 73 72 72 71 70 69 68 66 66 66 66 67 68 70 70 71 71 72 72 72 72 72 71 69 66 65 64 63 63 64 63 64 65 68 70 73 74 76 76 75 74 73 72 70 68 66 65 65
74 74 74 74 74 74 74 75 75 75 73 72 72 73 72 72 71 71 70 69 69 69 67 67 67 68 70 71 72 73 73 73 72 72 71 72 72 70 66 64 63 64 63 63 63 62 62 63 65 66 68 69 70 72 73 74 72 69 66 63 62 62 62
74 75 74 74 75 75 75 75 75 74 72 71 71 72 71 71 71 71 70 70 70 69 69 69 70 71 72 73 74 74 74 73 72 72 72 72 70 66 64 63 63 62 61 61 61 62 63 64 65 65 66 67 68 69 70 70 69 65 63 64 67 68 66
75 74 74 74 75 75 75 75 74 72 71 71 71 71 71 71 71 72 71 71 71 71 71 71 72 73 73 74 75 75 74 73 73 73 72 70 66 64 63 63 62 61 61 62 63 64 65 66 67 68 69 69 68 67 65 65 67 69 70 73 76 76 75
74 74 74 74 74 74 74 74 73 71 71 70 71 71 73 74 73 73 72 72 73 73 73 73 74 74 75 75 75 75 74 74 73 72 69 66 65 65 65 65 64 64 64 64 65 66 67 68 69 71 72 72 71 70 66 65 70 75 77 78 79 78 79
74 74 74 75 74 74 74 73 72 71 71 72 72 73 74 75 75 75 75 74 74 75 75 75 75 75 76 76 75 75 74 73 72 69 68 68 69 69 68 67 65 65 65 65 66 67 68 70 72 74 75 74 73 73 71 70 73 76 76 76 76 76 77
75 75 75 75 74 73 73 73 73 73 73 73 74 74 75 76 76 77 77 77 77 77 76 76 76 76 76 76 75 75 75 74 71 69 69 70 70 70 68 67 66 66 66 67 68 69 70 72 75 76 76 75 75 75 76 76 76 76 75 74 74 74 75
74 74 73 73 74 74 75 75 74 75 75 75 75 75 77 77 78 78 79 79 78 77 77 77 77 77 76 76 76 76 75 74 72 70 69 69 69 69 68 68 67 68 68 69 69 71 72 74 75 76 77 78 79 79 79 79 77 76 75 74 74 75 77
73 72 72 73 75 76 76 75 75 75 76 77 77 78 78 79 79 79 79 79 78 77 77 77 77 76 76 76 76 76 76 75 73 71 71 70 70 70 70 71 71 71 71 71 71 72 74 75 75 77 79 82 83 83 81 80 77 75 75 75 76 78 79
73 72 73 73 74 75 76 76 76 76 77 78 79 80 80 79 79 79 79 79 78 77 77 76 76 77 77 77 77 77 76 76 74 73 73 72 72 73 73 73 73 73 72 72 73 74 76 77 78 81 84 86 85 84 82 80 77 76 77 77 78 77 76
74 74 74 75 76 77 78 79 79 78 77 78 79 79 79 79 78 78 77 76 76 76 76 77 77 77 78 77 77 77 76 75 74 74 75 74 73 74 75 74 74 73 73 74 76 78 79 82 84 87 88 87 86 84 82 80 78 78 78 77 76 74 72
75 75 76 77 78 80 81 80 80 78 77 76 77 77 78 77 77 76 75 75 75 76 77 78 78 77 77 76 76 76 75 75 75 76 76 76 76 76 76 74 73 72 73 75 79 82 86 88 89 89 88 87 86 84 81 79 79 78 77 75 73 72 72
74 75 76 76 78 79 79 79 79 79 78 78 78 78 78 78 77 77 76 77 77 78 78 79 78 77 77 76 76 76 76 76 77 77 78 79 77 76 74 73 72 73 76 81 85 88 90 89 88 87 87 86 85 82 80 79 78 76 74 73 72 72 73

ECMWFFLT1_250_spd_024.txt.gz
Wind_Speed
23 22 22 23 22 22 21 21 21 22 23 24 25 25 26 27 27 27 28 28 29 29 29 30 31 32 32 32 32 32 33 33 34 35 35 36 36 36 36 36 37 37 37 38 38 38 39 39 40 40 40 39 38 37 38 41 43 45 45 45 45 45 45
26 25 26 26 25 25 24 24 24 25 26 26 27 28 28 29 29 29 29 30 30 31 31 32 33 34 34 34 34 34 34 35 35 36 36 37 38 37 37 37 37 38 38 38 39 39 40 41 41 42 43 42 41 40 40 42 45 47 47 47 47 47 47
28 28 29 28 28 28 27 27 27 28 29 29 29 30 30 31 31 31 31 31 32 32 33 34 35 36 36 36 36 35 35 36 36 37 37 38 39 39 39 39 39 39 39 40 40 41 41 41 42 43 44 44 43 42 42 43 46 47 48 49 49 48 47
30 31 31 30 30 30 29 29 29 30 30 31 31 32 32 32 32 32 33 33 34 34 35 36 36 37 37 37 37 37 36 36 37 38 38 39 40 40 40 41 41 42 42 43 43 43 44 44 45 45 45 45 44 43 42 43 45 46 48 50 51 50 49
34 34 33 33 33 32 31 31 31 32 32 33 34 34 34 34 34 34 35 35 36 36 37 38 38 39 39 39 38 38 38 38 38 39 40 40 41 42 42 43 44 45 45 46 46 47 47 47 48 48 46 45 44 43 43 44 45 47 48 48 49 50 50
37 37 36 36 35 34 33 33 34 34 35 35 36 36 36 36 36 36 37 37 38 38 39 39 40 40 40 40 40 40 39 39 40 40 41 42 42 43 44 45 46 47 48 48 49 50 50 50 50 49 47 46 45 44 44 46 48 49 49 47 47 49 49
40 40 39 37 37 36 35 36 36 37 37 38 38 38 38 38 38 38 38 39 40 40 41 42 42 42 42 42 42 41 41 41 42 42 42 43 44 45 46 47 48 49 50 51 51 52 52 51 50 48 46 46 46 46 47 49 50 50 49 48 48 48 48
43 42 41 39 38 38 37 38 38 39 39 40 40 40 40 40 40 40 40 41 42 42 43 44 43 43 44 43 43 43 43 43 43 43 44 45 46 47 49 50 51 51 52 53 53 53 52 51 49 47 46 47 48 49 51 51 50 48 48 48 48 48 48
45 44 43 41 40 39 39 40 40 40 41 41 42 42 42 42 42 42 43 43 44 44 45 45 45 45 45 45 45 45 45 45 45 45 46 47 48 50 51 52 53 54 54 54 54 53 52 50 47 46 46 47 48 51 52 50 49 48 48 48 49 49 50
47 46 45 44 42 42 42 42 42 42 42 42 43 44 44 44 45 45 45 45 46 46 47 46 46 46 46 46 46 46 46 46 47 47 48 49 51 52 54 55 55 55 55 55 53 51 49 47 46 45 45 47 50 52 51 49 49 50 49 50 51 51 51
48 47 47 46 44 43 44 44 44 44 44 44 44 45 45 45 46 47 47 48 48 49 49 48 48 48 48 47 48 48 48 48 49 50 51 52 53 54 55 56 57 56 55 54 51 48 46 47 47 46 46 49 52 51 48 48 50 51 52 53 54 53 53
50 49 48 47 46 46 46 46 46 46 46 46 46 46 47 47 47 48 49 50 51 51 51 50 50 50 50 49 50 50 50 51 51 52 53 54 55 54 55 56 57 56 56 54 50 47 47 48 48 48 49 51 51 49 49 51 52 53 55 57 57 58 57
52 51 50 49 49 49 50 49 48 48 48 48 48 48 48 49 49 50 50 51 52 53 53 52 52 52 52 51 52 52 52 53 53 54 55 56 55 55 54 55 55 56 56 53 49 47 47 46 46 49 53 52 50 52 54 55 55 55 58 60 61 62 62
54 54 53 52 52 52 53 52 50 50 51 51 51 50 50 50 51 52 52 53 54 54 54 54 54 54 53 53 53 54 54 54 54 55 56 56 56 55 54 52 52 54 54 50 48 48 48 47 48 52 55 54 55 56 57 57 56 57 58 60 61 63 65
55 56 56 55 55 55 54 53 52 53 53 53 53 52 51 52 53 54 54 55 56 56 56 56 56 55 55 55 55 55 55 55 56 56 57 56 55 54 53 50 48 52 54 51 50 50 49 49 52 54 55 57 57 57 57 57 57 58 59 59 61 63 65
57 57 57 58 58 57 56 55 54 55 56 56 54 53 53 54 55 56 57 57 58 58 59 59 58 58 57 57 57 57 57 57 57 58 57 56 55 53 52 48 47 53 58 55 52 53 52 53 54 55 57 59 59 59 59 59 59 59 60 61 62 63 65
60 59 58 59 59 58 58 57 56 57 58 58 56 55 55 56 58 59 59 60 60 60 61 61 61 60 60 60 59 59 60 60 59 58 57 57 55 54 52 50 48 52 57 57 56 56 56 56 56 58 61 62 62 62 62 63 62 61 59 60 63 66 71
62 61 60 61 60 59 59 58 58 59 61 59 57 57 58 59 61 62 62 62 62 62 63 63 62 62 62 62 62 62 62 62 61 59 58 58 57 55 53 53 51 53 56 59 59 60 59 58 60 63 64 62 62 62 63 64 65 63 64 66 70 74 80
63 63 63 63 62 61 60 60 60 61 62 61 60 60 61 62 64 65 65 65 65 64 64 64 64 64 64 64 64 64 64 63 61 60 59 58 57 56 55 55 55 55 57 60 62 63 63 62 63 65 65 63 64 65 65 65 66 67 70 73 75 78 81
65 65 65 64 63 63 62 61 62 63 63 63 62 62 64 65 66 67 67 68 67 67 67 66 66 66 66 66 66 66 65 64 62 61 59 58 57 57 56 57 57 59 60 62 64 66 66 67 67 68 67 66 66 67 67 67 66 68 70 72 74 77 79
67 67 66 65 65 65 64 63 64 64 64 64 64 65 66 67 68 69 69 70 70 70 69 69 69 69 69 68 68 67 66 65 63 61 59 58 57 57 58 58 59 61 62 64 66 68 69 70 70 69 68 68 68 68 67 67 66 67 69 71 73 75 77
69 68 68 68 68 67 66 65 65 65 65 66 66 67 68 68 69 70 71 71 71 71 71 71 72 72 71 71 70 69 67 66 64 62 60 58 58 59 59 60 61 63 64 66 68 70 71 71 70 70 69 69 69 68 67 66 66 67 69 71 72 73 75
72 71 70 70 70 69 68 67 67 66 67 68 68 69 69 70 70 71 72 72 73 72 72 73 74 73 73 72 71 70 69 67 66 64 62 60 60 61 61 62 63 65 66 68 70 70 71 71 70 70 71 70 68 67 66 67 67 69 69 70 71 72 73
74 73 73 73 73 71 69 69 69 69 70 70 70 70 71 71 72 73 73 74 73 73 73 75 75 74 74 73 72 71 70 68 67 65 63 63 63 63 63 64 66 67 68 70 71 71 71 71 71 71 71 69 68 67 67 67 67 68 68 68 69 71 72
76 75 75 75 74 72 71 71 71 71 72 72 72 72 73 73 74 74 74 74 73 73 74 75 75 74 74 73 72 71 70 69 68 67 66 65 65 65 65 67 69 70 70 71 71 72 72 72 72 72 70 68 67 66 66 66 66 66 67 68 70 71 72
77 76 75 75 74 73 72 73 73 73 74 74 75 75 75 75 75 75 75 74 73 74 75 75 75 74 74 73 72 72 71 71 69 68 68 67 67 67 68 69 71 72 72 72 72 72 72 72 71 70 68 67 65 65 65 65 66 66 67 68 70 71 73
77 75 76 76 75 75 74 75 75 75 75 76 77 77 76 76 76 75 75 74 73 74 75 75 75 74 74 73 73 72 71 71 71 70 70 69 69 70 71 72 73 73 73 73 73 72 72 71 71 69 68 67 67 67 67 67 67 68 69 70 71 73 74
78 77 78 77 77 76 76 75 76 76 77 77 78 77 76 76 76 76 75 74 74 75 76 76 75 74 73 73 73 72 72 72 72 72 72 72 71 72 73 74 74 74 74 74 73 72 72 71 71 70 70 70 71 70 69 69 69 70 70 71 71 72 73
79 79 79 78 78 77 77 76 76 77 77 78 78 77 76 76 77 76 75 75 76 76 76 76 75 74 73 73 72 72 72 73 74 74 74 74 74 74 74 74 74 74 74 73 72 72 73 72 72 72 72 72 71 71 71 70 68 68 69 70 71 72 73
80 80 79 79 78 78 77 77 77 77 77 77 77 77 76 77 77 77 76 76 77 76 75 75 75 74 73 73 73 73 74 75 76 76 76 76 76 75 75 75 74 73 73 73 74 74 74 74 74 74 73 71 70 70 70 67 66 68 71 72 72 74 76
80 79 79 78 78 78 78 78 78 78 77 77 77 76 76 76 76 77 77 77 76 75 75 74 74 73 73 73 74 74 75 76 77 77 77 77 77 77 76 75 74 73 73 75 76 76 76 75 75 75 73 70 69 68 68 67 69 72 72 72 74 76 79
79 78 77 78 78 78 78 78 78 77 77 76 76 76 75 74 75 76 77 76 76 75 75 74 74 74 75 75 75 76 76 77 78 78 78 77 77 77 76 75 74 74 76 77 77 77 76 76 76 75 74 72 69 67 67 69 71 70 70 72 77 81 83
77 77 77 77 77 77 76 76 76 75 75 74 74 73 73 74 76 77 77 77 76 76 75 76 76 76 76 76 76 76 77 78 79 78 77 77 77 77 76 75 76 77 78 77 76 76 76 76 76 76 75 72 68 65 67 69 69 67 71 77 81 84 86
76 76 76 76 76 76 74 73 73 73 73 73 73 72 73 75 77 77 77 77 76 76 76 76 76 76 75 76 77 78 79 79 78 77 77 77 77 77 77 78 78 78 78 77 76 77 76 75 76 76 74 71 68 67 69 71 69 71 77 82 84 86 87
76 77 77 76 76 75 74 73 73 73 73 73 73 73 74 75 76 77 77 77 76 76 76 76 77 77 78 78 79 79 79 79 78 78 78 78 78 78 79 79 79 78 78 77 78 78 76 75 76 76 75 73 71 70 70 71 73 77 81 85 87 88 87
76 76 77 77 76 76 75 75 74 74 73 73 73 73 74 75 76 77 77 77 77 77 77 78 79 79 80 80 80 80 79 79 79 79 78 78 78 79 80 79 79 78 78 78 79 79 78 77 77 77 76 74 73 72 72 75 78 82 85 87 88 87 86
76 76 77 77 76 76 76 76 75 75 74 74 74 74 75 75 75 76 78 78 78 78 79 80 80 80 80 80 80 80 80 80 79 78 77 77 78 80 80 80 79 79 80 80 80 79 79 78 78 78 77 76 77 78 79 82 84 86 87 87 87 86 85
75 75 75 76 76 76 76 76 75 74 74 74 74 73 72 73 75 77 79 80 80 80 81 81 81 81 81 80 80 79 79 78 77 76 77 79 80 81 81 81 81 80 81 81 80 79 78 78 78 79 79 80 82 83 84 86 87 87 88 87 86 85 82

ECMWFFLT1_250_spd_027.txt.gz
Wind_Speed
25 24 25 26 26 26 25 24 24 24 24 24 23 23 23 23 23 23 23 24 25 25 26 26 27 27 28 28 28 27 28 28 29 30 31 31 31 31 32 32 33 34 35 36 36 37 38 39 41 42 42 43 43 43 42 42 41 39 37 36 36 38 41
27 25 26 27 28 27 26 26 26 26 26 26 26 25 26 25 25 26 26 27 27 27 28 28 29 29 29 30 29 29 29 30 30 31 32 32 33 33 33 34 35 36 37 38 39 39 40 42 43 44 45 45 45 44 44 43 41 38 37 35 36 39 42
29 28 28 29 29 29 29 29 29 29 29 29 28 28 28 27 27 28 28 28 29 29 30 30 31 31 31 31 31 31 31 32 32 33 33 34 34 35 35 36 36 37 38 40 41 42 43 44 45 46 46 46 45 44 44 42 40 38 37 35 37 40 43
31 30 30 31 32 32 32 32 31 31 31 31 31 30 30 29 29 29 29 30 31 31 32 32 32 32 32 33 33 33 33 34 34 34 35 36 36 37 38 38 38 39 40 41 43 44 45 47 47 47 47 46 45 43 42 40 39 38 38 37 39 41 45
33 32 34 35 35 34 34 34 34 33 33 33 34 33 32 31 31 31 31 32 33 33 34 34 34 34 34 34 34 34 35 35 36 36 37 37 38 39 40 40 41 41 42 43 45 47 48 49 49 49 48 47 45 43 41 40 40 40 39 40 41 43 46
38 36 36 36 36 37 37 37 35 35 35 36 36 36 35 34 34 33 33 34 34 35 35 35 35 35 35 36 36 36 36 37 37 38 38 39 40 41 42 43 43 44 44 45 47 49 50 50 50 50 48 46 45 43 41 41 42 41 40 41 43 45 47
42 40 39 39 39 39 39 38 38 37 38 38 38 38 37 36 36 35 35 36 36 37 37 36 36 37 37 37 38 38 38 38 39 40 40 41 42 43 44 45 45 46 47 47 49 50 51 51 51 50 48 47 45 44 43 44 44 43 42 43 46 47 47
45 43 42 42 41 40 40 40 40 39 40 40 40 39 39 38 38 37 38 38 38 39 38 38 38 39 39 39 39 40 40 40 41 42 43 43 44 44 45 46 48 49 49 50 52 53 52 52 51 50 48 46 45 45 45 45 44 44 46 48 50 49 49
48 46 45 45 44 42 42 41 41 41 41 41 41 40 40 40 40 40 40 40 40 40 40 40 40 40 40 41 41 41 42 42 43 44 44 45 46 46 46 47 50 50 50 53 55 55 54 53 52 50 48 45 45 46 46 45 45 47 50 52 52 51 50
51 49 48 47 46 44 43 43 43 43 43 43 42 42 42 42 42 42 43 43 42 42 42 42 42 42 42 42 43 43 44 44 45 46 46 47 48 47 47 49 51 51 51 54 56 57 55 54 52 50 48 47 46 47 47 46 47 49 52 53 53 52 52
54 51 50 50 47 46 45 43 43 43 45 45 44 44 45 44 45 45 45 44 44 44 44 44 44 44 44 44 45 45 46 46 47 48 48 49 49 48 48 50 53 54 53 55 57 58 56 55 53 51 49 48 47 47 47 47 48 50 53 54 54 55 56
57 54 52 51 49 46 44 43 44 45 46 47 46 47 47 47 47 47 46 46 46 46 46 46 46 46 46 46 47 48 48 49 50 50 50 51 51 51 50 52 55 56 56 56 58 59 58 56 54 52 50 49 48 48 48 49 50 51 53 55 56 57 58
59 56 54 53 50 48 47 47 48 47 47 48 49 49 50 49 49 49 48 48 48 49 49 49 49 49 49 49 50 50 50 51 52 52 53 53 53 53 53 54 56 57 57 58 59 59 58 57 55 53 51 50 50 49 50 52 52 53 55 57 57 57 58
61 59 57 54 51 50 49 50 50 49 48 49 51 51 51 51 51 51 51 51 51 51 52 52 52 52 52 52 52 53 53 53 54 54 55 55 55 55 55 56 58 58 57 58 59 59 58 57 56 54 52 51 51 51 53 54 55 57 58 57 56 58 60
62 60 59 56 53 52 51 52 53 51 51 51 52 53 53 53 52 52 52 53 53 54 54 54 54 54 54 54 55 55 55 55 56 56 57 57 57 57 57 58 59 59 58 59 59 58 58 57 56 55 53 53 53 54 55 56 58 60 59 57 56 60 62
63 62 61 59 57 55 54 55 55 54 53 54 55 55 55 54 54 54 54 55 56 56 56 57 57 57 56 56 57 57 58 58 58 58 58 59 58 58 59 60 61 60 60 60 60 59 58 57 57 55 55 55 56 56 57 59 60 61 59 57 58 62 64
66 65 62 61 60 58 57 57 57 57 57 57 57 57 57 56 55 56 56 58 59 59 59 59 59 59 59 59 59 60 60 60 60 60 61 61 60 60 60 62 63 62 62 62 60 59 59 58 58 56 56 58 59 59 60 61 62 62 61 59 60 64 66
69 67 63 62 61 60 59 59 59 59 58 58 59 59 58 58 57 58 59 60 62 62 61 62 61 61 61 61 62 62 62 62 62 63 63 62 61 61 62 63 64 64 63 62 61 60 59 59 59 58 58 60 61 62 63 64 65 66 62 61 64 67 67
71 70 66 63 62 61 62 61 61 61 60 60 61 60 60 59 59 60 61 63 65 64 64 64 64 64 64 64 64 64 64 64 64 65 65 64 62 62 63 64 65 66 64 63 62 61 59 59 59 60 60 61 62 64 65 66 68 66 61 62 67 69 67
74 71 68 65 63 62 63 64 64 65 64 63 63 62 61 61 62 63 64 66 67 67 66 66 66 66 66 66 66 66 66 66 66 66 66 65 64 64 64 65 66 66 66 64 64 63 61 61 60 61 62 63 64 66 66 69 69 63 61 66 70 69 69
76 72 69 67 65 62 64 66 66 66 67 66 64 63 63 64 66 66 67 68 69 68 69 69 69 69 68 69 69 69 68 67 67 68 68 67 67 67 66 66 66 67 67 66 65 64 64 63 63 63 64 65 66 68 68 69 68 64 65 70 71 70 71
77 75 72 70 67 65 66 68 69 69 69 68 66 65 65 67 68 69 69 70 70 70 71 71 71 71 70 71 72 71 70 69 69 69 69 69 70 69 69 67 67 67 67 66 66 65 65 66 65 66 67 67 69 70 70 71 70 69 71 72 71 72 73
81 79 75 72 71 71 71 72 73 73 72 70 68 66 67 70 71 71 71 72 72 72 73 73 73 72 72 73 74 73 72 71 71 71 71 71 72 72 71 70 69 69 68 67 67 66 66 67 67 68 69 70 71 72 73 72 72 72 73 73 73 74 73
85 81 78 77 76 75 75 76 75 74 73 71 69 68 69 72 73 73 73 73 74 74 74 74 74 74 74 75 76 76 75 74 74 74 74 74 74 74 73 71 71 70 69 68 67 67 67 68 69 70 71 72 73 74 74 74 73 73 74 75 75 74 73
88 83 81 80 79 78 78 78 77 77 76 73 70 70 71 73 74 75 75 75 76 75 75 75 76 76 76 77 77 78 77 77 76 75 75 75 75 75 74 72 72 71 70 69 69 69 69 69 70 72 73 74 75 75 75 75 74 75 76 77 75 73 71
91 87 84 82 80 79 79 80 81 80 79 76 73 73 74 75 76 76 77 77 77 76 76 76 77 78 78 78 79 80 80 79 78 77 76 76 75 75 74 73 72 72 71 70 70 70 70 71 72 73 74 75 74 75 76 77 77 78 79 78 74 70 70
95 91 87 84 82 81 81 82 83 82 80 78 77 76 75 76 77 78 78 78 77 77 77 77 78 79 79 79 81 82 82 81 79 78 77 76 75 74 73 72 71 71 71 71 71 71 72 73 73 74 74 74 74 75 77 78 80 80 78 74 71 70 72
97 93 88 84 84 84 83 83 83 82 82 81 79 78 76 77 78 79 79 78 78 78 78 78 79 79 80 81 82 83 83 82 81 79 78 76 74 73 72 72 71 71 72 72 72 72 73 74 74 74 74 74 75 75 76 78 80 78 73 72 74 76 77
95 93 89 86 86 86 84 83 83 84 84 82 81 80 78 78 78 79 79 79 79 79 79 79 79 79 80 81 82 82 83 82 81 80 78 75 73 72 72 72 71 71 72 73 73 73 74 75 75 74 74 74 75 75 75 76 76 74 73 77 80 81 79
93 92 89 87 87 87 85 84 84 84 84 83 83 81 80 79 79 79 80 80 79 79 79 79 79 79 79 79 79 79 80 80 80 79 77 74 73 72 73 73 73 73 73 74 74 75 75 76 75 74 75 74 75 75 74 72 71 74 78 80 80 80 81
92 91 89 88 88 88 87 85 84 84 84 84 83 82 81 80 80 80 80 80 79 78 78 78 78 78 78 77 76 77 79 80 80 78 75 74 74 73 73 74 74 75 75 75 75 76 76 76 75 75 75 74 74 75 72 69 72 78 81 80 79 81 84
90 90 89 88 88 88 86 85 84 84 84 83 82 81 81 81 81 80 79 79 78 77 77 77 76 75 75 75 76 78 79 80 78 76 74 74 74 74 74 75 76 76 77 77 77 77 76 76 75 75 75 75 73 73 71 72 76 81 81 81 84 87 88
91 90 89 88 88 87 86 85 84 84 83 82 81 81 81 81 80 79 79 78 77 76 76 75 74 73 73 74 75 77 78 77 76 75 75 75 76 76 76 77 78 78 79 78 78 78 77 76 75 75 76 74 72 72 73 76 79 81 83 86 89 91 91
91 91 89 88 87 86 85 85 84 83 82 81 81 81 81 80 79 79 78 77 77 76 75 75 75 74 73 73 75 77 77 76 76 76 77 77 77 78 79 79 80 80 80 79 78 77 76 76 76 76 76 73 71 70 74 78 82 85 87 90 91 91 90
91 91 89 88 87 86 85 84 83 82 82 81 81 81 80 79 79 78 78 78 78 77 76 75 74 74 73 74 75 77 77 77 78 78 78 78 79 80 80 81 81 80 79 77 76 77 77 77 77 77 77 75 73 73 77 83 87 88 89 90 89 88 87
90 90 89 87 86 85 83 83 82 81 81 81 81 81 80 80 79 78 78 78 77 76 76 75 75 75 75 75 75 76 78 79 79 79 78 79 80 81 81 81 80 79 77 77 77 78 79 79 79 80 80 80 79 79 83 86 87 86 86 86 86 86 85
86 87 86 86 84 83 82 81 81 80 80 80 80 80 80 79 78 77 77 77 76 76 76 76 76 75 75 75 76 77 79 79 78 77 78 80 82 82 81 80 79 78 78 78 79 80 80 81 82 83 84 85 84 84 85 85 84 84 84 84 84 84 83
81 82 82 82 82 82 81 80 79 78 78 78 78 78 78 77 76 76 75 75 75 75 75 75 75 75 75 75 74 74 75 75 76 77 79 81 82 81 81 80 78 78 79 81 82 82 82 83 84 85 86 86 85 84 84 84 84 84 83 83 82 82 82

ECMWFFLT1_250_spd_030.txt.gz
Wind_Speed
26 27 28 26 25 25 24 24 24 23 21 21 22 24 24 23 23 23 23 24 25 26 26 27 27 27 27 27 26 26 26 26 26 27 27 28 28 29 29 30 31 32 33 34 35 35 35 36 37 38 39 40 41 42 43 43 42 41 40 39 37 37 37
28 29 29 27 26 27 26 26 27 26 23 22 23 25 25 25 25 25 25 26 27 28 28 29 28 28 29 28 28 28 28 28 28 28 29 29 30 30 31 31 32 33 35 36 37 37 37 38 39 40 41 42 43 44 44 44 44 43 41 40 38 38 38
30 30 29 28 26 27 28 28 28 27 25 24 25 27 27 27 27 27 27 28 29 30 31 30 30 31 31 30 29 29 29 29 29 30 30 31 31 32 32 33 34 35 36 38 39 39 40 40 40 41 42 44 45 45 45 45 44 43 42 40 39 38 38
32 32 31 30 28 27 30 30 30 30 30 28 28 29 30 29 29 29 30 30 31 32 32 32 33 33 33 32 31 31 31 31 31 32 32 32 33 33 34 34 36 36 38 39 40 40 41 42 42 42 44 46 47 46 46 46 45 43 42 41 41 40 39
35 35 33 33 31 30 31 33 33 34 34 33 32 32 32 32 32 31 31 32 33 34 34 35 35 35 34 33 33 33 33 33 33 33 34 34 34 35 35 36 37 38 39 40 41 42 43 43 44 44 45 47 48 48 48 48 47 45 44 43 42 42 42
38 36 35 35 34 32 33 34 35 36 37 36 34 34 35 35 34 33 33 34 35 36 36 37 36 36 35 35 35 35 35 35 35 35 35 36 36 36 37 38 38 39 41 42 43 44 45 45 46 46 46 48 49 50 50 49 49 47 45 44 44 44 45
38 38 39 38 35 34 34 35 36 36 38 38 37 36 36 36 36 35 35 36 36 37 38 38 38 37 37 37 37 37 37 37 37 37 37 38 38 38 39 39 40 41 42 43 44 46 47 47 48 48 49 49 50 52 51 50 50 49 47 46 45 46 47
38 40 42 39 37 36 36 37 37 37 38 39 39 38 38 38 37 37 37 37 38 39 39 39 39 39 39 39 39 39 39 39 39 39 39 40 40 41 41 41 42 43 44 45 46 48 49 49 49 50 50 51 52 53 53 52 51 50 49 48 47 48 49
40 42 44 42 38 38 40 40 39 38 39 39 39 40 41 40 39 39 39 39 39 40 40 41 41 41 41 41 41 42 42 41 41 41 42 42 43 43 43 43 44 45 45 47 48 50 50 50 51 51 51 52 54 55 54 53 52 51 51 50 49 49 50
45 43 46 45 41 41 43 42 40 41 42 42 42 43 43 42 41 41 41 41 41 41 42 42 43 43 43 43 44 44 44 44 44 44 44 45 45 45 45 45 45 46 47 48 50 51 52 52 53 53 53 54 55 56 56 54 54 53 52 51 50 51 52
50 46 48 48 43 43 45 44 43 44 44 45 45 45 46 45 45 45 44 43 42 42 43 44 45 45 45 46 46 46 46 46 46 47 47 47 48 48 48 47 47 48 48 49 51 53 54 54 55 56 56 55 56 58 57 56 55 54 53 53 52 53 54
56 51 51 51 46 45 46 46 47 47 47 48 47 47 48 47 47 47 46 45 44 44 45 46 47 47 48 48 49 49 49 49 49 49 49 50 50 50 50 49 49 51 51 51 51 54 56 57 57 58 58 57 58 58 59 57 55 54 54 53 53 54 55
59 54 54 54 50 49 49 50 50 49 49 50 49 49 50 49 49 50 49 48 47 48 49 48 49 50 50 50 51 51 51 51 52 52 52 52 52 53 53 52 52 53 54 54 53 55 57 58 59 59 60 60 59 60 60 58 56 56 54 54 55 55 55
61 57 58 58 54 53 53 51 52 52 52 52 52 52 52 52 52 51 51 51 50 52 52 51 51 52 52 53 53 53 53 53 54 54 54 54 55 55 55 54 54 55 56 56 56 56 57 58 60 61 62 62 61 61 61 60 58 57 56 56 56 55 56
62 60 62 62 58 57 57 54 53 54 55 55 55 54 54 55 55 54 54 54 53 54 54 53 54 55 55 55 55 55 55 55 56 56 56 57 57 57 57 57 57 56 57 58 59 59 59 59 60 62 63 64 63 62 61 60 59 58 57 56 53 53 58
63 61 63 64 61 59 59 57 57 57 57 57 57 56 55 56 57 57 56 56 55 55 55 56 57 57 58 58 57 57 57 57 58 58 58 59 59 60 60 59 59 59 59 60 61 61 61 60 61 62 63 65 64 63 61 61 60 59 57 54 51 55 61
65 63 64 63 61 59 58 58 58 59 59 59 59 58 56 57 59 59 58 58 57 56 57 59 60 60 61 60 60 59 59 59 59 60 60 61 61 62 62 62 61 61 61 61 62 62 62 62 61 61 62 64 65 65 63 62 61 60 58 55 55 59 63
71 69 69 69 67 65 63 62 61 61 61 61 60 59 59 59 60 60 60 60 59 59 59 62 63 63 62 61 61 61 61 61 61 61 62 63 63 64 64 64 64 64 64 64 64 64 64 63 62 62 62 63 65 65 64 63 62 62 60 60 60 63 64
74 74 74 74 73 71 69 68 65 63 62 61 60 60 60 60 61 62 62 62 61 61 62 64 65 64 62 61 62 63 63 62 62 63 64 64 65 65 65 66 66 66 66 66 66 66 65 65 64 64 63 63 63 64 65 64 64 63 62 62 63 64 65
77 78 77 76 75 74 73 71 69 67 66 64 63 64 62 61 62 63 63 64 64 64 65 67 68 66 64 63 64 64 64 64 65 65 66 66 67 67 67 68 69 69 68 68 68 68 67 67 67 66 65 64 63 64 64 65 65 65 64 64 65 66 66
79 80 78 76 76 76 75 74 72 70 68 67 67 68 66 65 66 66 66 66 67 66 67 69 70 68 67 66 65 65 65 66 67 67 67 68 68 69 69 70 71 71 70 70 70 70 70 69 69 68 67 66 65 64 65 65 66 66 65 66 67 67 68
80 82 80 78 79 80 77 76 76 73 71 69 69 69 68 68 69 69 68 69 70 70 70 72 72 70 67 66 66 66 67 67 68 69 69 69 70 71 72 72 73 73 73 72 72 72 72 71 70 69 68 67 67 66 66 66 67 67 67 67 68 69 69
82 84 84 83 84 84 81 78 78 78 74 71 71 71 70 70 70 70 70 71 72 73 73 73 73 71 68 67 67 67 67 68 69 70 71 71 72 73 74 75 75 75 75 74 74 73 73 73 72 70 69 69 69 68 67 67 68 69 69 69 69 70 71
87 86 87 88 86 86 84 80 79 80 78 75 74 73 72 72 72 71 72 73 75 75 75 74 73 71 71 71 70 68 68 69 70 71 73 74 74 75 77 77 78 77 77 76 75 74 74 73 72 72 71 70 70 70 69 69 69 70 71 72 72 72 72
91 89 89 89 89 89 86 80 79 82 81 78 76 75 75 76 74 73 74 75 77 77 76 75 74 74 74 74 72 70 70 71 72 73 74 76 77 78 80 80 80 80 79 77 76 75 73 72 71 72 72 71 71 71 71 70 71 72 73 74 74 73 73
93 91 90 90 93 94 87 79 80 84 83 80 78 77 78 78 76 75 75 77 79 79 78 77 77 76 76 75 73 72 73 73 73 74 75 77 79 80 82 82 83 82 80 79 77 74 72 71 71 71 72 72 72 72 72 72 72 73 74 75 75 75 74
92 93 92 93 96 95 87 82 85 87 84 82 81 80 80 80 79 77 77 78 81 81 80 80 79 78 77 76 74 75 75 75 75 75 76 78 80 81 83 84 84 83 81 79 76 73 71 71 71 72 72 72 72 73 73 73 73 74 75 75 76 76 75
93 94 93 94 95 92 86 87 91 90 86 84 82 81 82 83 81 78 77 80 82 82 81 81 81 79 77 76 76 77 77 77 77 77 77 79 80 80 82 82 81 80 80 78 75 73 73 73 73 73 72 72 72 73 74 74 74 74 75 76 77 78 77
93 93 93 94 92 88 88 92 94 92 88 85 83 81 80 80 79 78 77 77 78 79 81 82 81 79 78 77 78 78 78 78 77 77 78 78 78 79 80 78 74 74 76 77 76 76 74 73 73 73 73 73 73 74 74 74 74 74 75 77 78 79 79
89 89 92 93 90 86 87 92 94 92 89 87 85 83 81 80 80 79 79 79 79 81 83 83 82 80 80 80 80 79 79 78 78 77 77 77 77 77 76 72 70 72 75 76 77 77 76 74 74 74 74 74 74 73 73 73 74 75 76 78 79 79 80
86 87 90 92 92 91 91 93 94 93 91 89 86 85 85 85 84 83 83 83 83 83 83 82 82 82 82 82 81 80 79 78 78 77 77 76 76 75 72 70 70 73 77 78 78 77 76 75 75 75 75 75 74 73 73 74 74 76 78 79 80 81 82
80 86 88 88 89 93 94 95 96 96 94 92 90 89 87 87 88 88 88 86 84 82 82 82 83 84 84 84 83 81 80 79 79 78 77 77 77 76 74 72 73 76 78 79 78 77 76 76 76 76 76 75 74 74 74 74 76 77 79 80 81 83 84
67 73 77 79 83 87 91 93 95 97 96 96 94 93 91 88 87 86 86 84 83 82 81 82 83 84 84 84 83 81 80 79 79 79 79 78 78 77 76 74 75 77 78 78 77 76 76 77 77 76 76 76 75 75 75 76 77 78 80 82 84 85 86
54 54 59 66 70 75 82 88 92 95 96 97 96 96 95 93 89 85 82 82 82 81 81 82 83 83 83 82 81 80 80 80 79 79 79 79 78 76 75 75 75 76 77 77 77 76 77 78 78 77 77 77 77 77 77 78 79 80 82 85 86 87 87
48 49 53 56 58 62 69 76 82 88 93 95 96 97 96 95 93 90 87 85 83 82 81 82 83 83 82 81 80 80 79 79 78 78 77 77 76 75 74 75 75 75 76 77 77 77 78 79 78 77 78 79 79 78 78 79 80 82 85 87 89 89 89
36 39 44 46 50 60 70 74 77 83 88 91 93 93 93 93 92 91 89 86 84 82 82 82 82 82 81 80 80 79 77 76 77 77 76 76 75 74 73 73 74 74 76 77 78 78 78 77 77 78 79 80 80 80 80 80 81 84 87 89 91 91 91
25 29 31 35 45 60 73 77 77 78 79 81 83 85 87 89 89 88 88 87 85 84 83 81 81 80 79 79 78 77 76 75 76 76 75 75 75 74 73 73 73 75 76 76 75 75 74 74 76 78 79 80 81 82 82 82 84 87 90 92 92 92 91
32 34 37 42 51 61 68 69 66 62 62 64 68 72 75 79 81 83 84 85 84 83 82 81 80 79 78 78 77 76 75 74 74 74 74 74 74 73 73 72 72 72 72 71 71 71 72 74 76 77 78 81 83 84 85 85 87 89 92 93 94 92 91

ECMWFFLT1_250_spd_033.txt.gz
Wind_Speed
23 25 26 26 25 24 24 23 21 21 22 22 22 22 21 20 19 18 17 17 17 18 19 20 21 22 23 23 24 24 24 25 25 25 24 24 24 25 26 27 28 29 30 31 31 31 32 32 33 34 35 36 37 38 39 40 41 42 43 44 44 44 43
25 26 28 28 27 27 26 24 24 25 26 24 24 25 23 21 20 20 20 18 18 18 20 22 23 24 25 25 25 25 26 27 27 26 26 26 26 27 27 28 30 30 31 32 33 33 34 34 34 35 36 37 38 40 41 41 42 43 44 45 46 45 44
28 28 30 29 28 29 28 27 27 28 28 26 26 26 25 24 22 22 22 21 20 20 22 24 25 26 27 27 27 27 28 28 28 27 27 27 28 28 29 30 31 32 32 33 34 35 36 37 37 37 37 39 40 41 42 43 43 44 44 46 47 46 45
31 31 31 30 30 30 29 29 29 29 29 27 27 28 28 27 25 24 25 24 23 23 23 25 27 28 28 28 28 29 29 29 28 29 29 29 30 30 31 32 33 33 34 35 35 36 37 39 40 40 40 40 41 42 43 44 44 45 45 46 47 47 47
34 34 33 33 32 31 30 30 30 30 30 29 29 29 29 29 28 28 28 27 26 25 25 26 28 29 30 30 30 30 30 30 29 30 31 32 32 32 33 34 35 35 36 36 37 38 39 40 41 42 43 43 43 44 45 45 46 46 47 47 48 48 48
37 37 37 37 35 34 32 31 31 31 32 32 31 31 31 31 31 31 31 31 29 27 27 28 29 31 32 32 32 32 31 31 31 32 33 34 34 35 35 36 37 37 38 38 39 39 40 41 42 44 44 45 46 47 47 48 48 48 49 50 50 50 50
40 39 40 40 38 37 35 33 33 34 34 35 34 33 33 33 33 33 34 34 32 30 28 29 30 32 33 33 34 33 33 32 33 34 35 36 36 37 37 38 39 39 39 40 40 41 42 43 43 44 46 46 47 48 49 50 50 51 51 52 52 52 52
43 42 43 44 42 39 37 36 36 36 36 37 36 36 35 35 34 34 34 34 34 33 30 30 31 33 34 35 35 35 35 35 35 36 37 38 38 39 40 40 41 41 42 41 42 43 44 45 45 46 47 48 49 50 50 51 52 53 53 54 54 54 54
46 45 45 46 46 42 39 39 39 38 38 38 39 39 39 37 36 35 34 34 34 34 33 31 32 34 34 36 37 37 37 37 38 38 39 40 40 41 42 43 43 44 44 43 43 45 46 47 47 48 49 49 50 51 52 52 53 54 55 56 56 56 55
48 48 48 48 47 44 42 43 42 40 40 40 41 42 42 41 39 37 36 36 35 35 34 34 35 35 36 37 38 39 40 40 40 41 42 42 43 43 44 45 45 46 46 46 46 47 47 48 49 50 51 51 52 52 53 53 54 55 56 57 57 57 57
50 49 51 50 49 47 44 45 45 42 41 42 43 44 44 43 42 40 39 39 39 38 37 37 38 39 39 40 41 42 42 43 43 44 44 45 45 45 46 47 47 48 48 48 48 49 49 50 51 52 53 53 53 54 54 55 55 56 57 58 58 58 58
53 51 52 51 51 51 49 48 47 45 44 44 45 45 46 45 44 43 42 42 42 41 40 40 41 42 43 43 44 45 45 46 46 46 47 48 47 48 49 49 49 49 49 50 50 51 52 52 54 54 54 55 55 55 56 56 57 57 58 59 59 59 58
57 54 54 53 53 54 53 50 48 48 48 47 46 47 47 46 46 46 46 45 44 43 42 42 43 44 45 46 47 48 48 48 48 49 51 50 49 50 51 51 51 52 51 51 51 52 53 55 56 56 56 56 57 57 57 58 58 58 58 59 59 59 58
61 60 57 56 56 55 55 52 49 49 50 49 48 48 48 49 49 49 49 48 46 45 45 45 46 47 48 48 49 50 50 50 51 52 53 52 51 52 52 53 54 54 54 53 53 53 55 56 57 57 57 57 58 58 58 59 60 59 59 59 59 60 59
65 64 60 58 57 56 56 55 51 50 52 52 51 50 50 52 52 51 51 49 47 47 47 48 49 50 50 50 51 52 53 53 54 55 54 53 53 54 54 55 55 56 55 55 55 55 56 58 59 59 59 59 59 59 60 60 60 61 60 60 60 61 61
67 67 64 61 59 58 59 59 55 53 54 54 54 53 53 54 53 52 52 51 50 50 50 51 52 53 53 53 54 55 56 56 57 57 56 55 55 55 56 56 56 56 57 57 58 58 58 59 60 60 60 60 60 61 62 62 61 61 62 62 62 62 62
70 69 68 66 62 61 62 62 60 57 55 56 57 57 57 56 55 54 54 54 55 54 54 54 54 56 56 56 57 58 58 58 58 58 58 57 58 58 58 58 58 58 59 60 60 60 60 61 61 62 62 62 62 63 64 64 64 63 63 63 63 63 63
74 72 72 69 66 65 65 64 62 60 58 58 59 59 60 59 58 58 57 58 59 58 57 57 57 58 59 60 61 60 60 60 60 60 60 60 60 60 61 60 60 61 60 60 60 61 61 62 63 63 63 64 65 65 66 66 66 66 66 65 63 62 63
79 76 74 72 70 68 67 66 65 62 61 62 62 61 62 62 61 61 60 59 58 58 57 58 59 60 61 63 63 62 62 61 61 61 61 62 63 63 63 62 62 62 61 61 61 62 63 64 65 64 65 66 67 67 68 68 68 68 68 66 63 62 63
81 79 76 74 72 72 72 70 68 66 64 64 63 62 62 63 63 63 61 58 56 57 58 59 61 61 62 64 64 64 63 62 62 63 63 64 65 65 65 65 65 64 63 63 64 65 66 67 68 67 67 67 68 68 69 69 70 69 68 65 63 64 64
82 81 79 77 75 75 76 76 73 70 69 68 67 65 65 65 64 64 63 61 60 61 61 62 62 63 64 66 67 67 66 65 64 65 66 67 67 66 67 67 67 66 66 66 68 69 69 71 71 70 70 70 69 69 69 70 71 69 68 66 66 66 65
84 83 83 82 80 79 80 80 78 75 74 73 73 71 68 68 67 67 67 66 65 65 65 65 65 65 66 68 68 69 69 68 67 67 68 68 68 67 68 68 69 69 68 68 70 71 73 74 74 73 73 72 71 71 71 72 71 70 69 68 68 68 66
89 88 87 87 86 84 83 82 80 79 78 76 75 72 70 70 69 69 70 70 69 68 67 67 67 67 68 69 69 70 71 71 69 68 69 69 68 68 69 70 71 70 70 69 71 73 75 76 76 76 76 75 74 74 73 73 72 71 70 69 68 68 67
93 93 92 91 90 88 86 81 79 80 80 79 76 73 72 72 73 73 74 74 72 70 69 69 69 69 70 71 71 71 72 72 71 71 71 70 70 70 71 72 72 72 71 71 71 74 76 77 78 78 79 78 78 77 77 75 73 71 69 68 67 67 67
91 94 95 93 92 91 87 82 80 81 81 81 79 76 74 75 75 73 72 71 71 71 71 71 72 72 74 74 74 74 74 74 74 73 73 72 72 72 73 74 74 73 73 72 73 76 78 79 79 80 81 81 81 79 78 77 74 71 69 68 67 67 68
86 91 94 94 93 93 90 86 84 83 81 80 81 80 78 77 76 73 71 71 72 72 73 75 76 76 77 78 77 76 77 77 76 76 75 75 74 74 75 75 74 73 73 74 76 78 80 81 82 83 83 83 82 80 77 75 73 71 69 69 69 69 69
81 84 89 92 92 94 94 92 88 84 81 81 82 82 81 81 82 79 76 74 74 74 76 79 80 80 80 80 81 80 80 80 79 78 77 77 77 77 76 75 73 72 74 77 78 80 81 82 83 83 83 82 80 78 75 73 72 71 70 70 70 70 70
75 77 81 87 90 93 94 94 90 85 82 82 83 83 83 83 85 84 79 75 75 76 78 80 82 82 82 83 83 83 83 83 82 81 80 79 80 79 76 74 74 75 77 78 79 80 82 82 82 82 81 79 76 75 74 72 71 71 70 70 70 71 71
69 71 74 80 85 88 90 90 89 86 84 83 83 83 82 83 86 86 82 79 79 80 82 83 84 85 85 85 86 87 87 87 85 83 82 81 80 78 76 76 77 78 79 80 80 80 81 81 80 79 77 75 73 73 73 72 71 71 71 71 71 71 71
66 68 71 74 79 81 83 83 82 81 80 80 82 83 83 84 88 90 87 85 85 85 84 85 86 86 87 87 88 89 90 89 86 84 83 82 80 78 79 79 79 79 80 80 79 79 78 78 78 76 74 73 71 72 72 72 71 71 71 71 71 72 72
64 67 68 70 73 75 74 73 70 68 68 71 76 80 80 82 86 87 85 84 86 87 87 86 86 88 88 88 89 91 91 87 84 83 82 81 80 80 81 81 81 80 79 78 77 76 75 75 74 73 72 71 71 72 72 71 71 71 71 71 72 72 72
59 62 64 67 67 67 66 63 59 57 58 62 69 74 75 76 79 79 77 77 79 83 86 86 86 88 88 88 90 90 89 85 82 81 81 80 80 80 79 78 78 77 76 76 75 74 73 72 72 71 71 71 71 71 70 70 70 70 71 72 73 73 72
50 53 58 60 59 59 58 55 54 55 55 56 64 69 68 69 74 76 76 77 79 80 82 84 86 88 89 90 90 89 86 83 82 80 79 77 76 75 74 73 73 73 74 74 73 72 72 71 71 71 71 71 71 70 69 69 70 71 72 72 73 72 71
46 47 49 51 52 53 52 50 52 55 52 51 57 62 59 57 61 67 73 78 80 81 81 80 83 86 88 89 88 87 85 82 80 78 76 74 73 72 72 72 72 72 72 72 72 72 71 71 71 71 71 71 70 69 69 69 70 71 72 71 71 71 71
45 44 43 43 45 45 46 46 49 53 52 49 50 54 53 52 55 60 67 75 81 82 81 79 79 82 84 84 84 84 83 81 79 77 76 75 75 74 74 73 72 72 72 72 71 70 70 71 71 72 71 69 69 69 69 70 71 70 69 69 69 70 72
44 42 39 38 39 39 41 43 45 50 50 45 42 46 50 53 53 54 57 66 77 80 76 74 74 74 74 74 75 77 78 78 77 76 76 77 77 76 74 73 72 72 71 70 70 70 71 71 71 71 70 69 69 69 70 70 69 67 66 67 69 71 72
41 40 35 32 32 32 33 34 36 39 40 37 38 44 48 50 52 52 50 57 68 70 66 65 67 67 65 64 64 66 68 70 72 73 74 75 75 74 73 73 72 71 70 69 69 69 68 68 67 68 69 69 70 70 68 66 65 65 65 68 70 72 75
40 38 33 29 28 25 21 18 20 26 31 35 40 45 47 51 55 56 54 57 63 65 64 64 64 64 63 63 62 64 65 66 66 67 69 70 71 72 71 71 71 70 68 65 64 63 63 64 66 68 70 71 71 68 65 63 64 65 67 70 72 75 78

ECMWFFLT1_250_spd_036.txt.gz
Wind_Speed
27 27 26 26 26 25 24 22 21 21 21 21 21 21 22 22 21 19 18 19 19 18 18 17 17 17 16 16 16 17 18 19 20 22 24 24 24 25 25 24 24 24 24 25 25 27 28 29 30 31 33 34 36 37 38 38 39 40 40 40 40 40 41
29 29 29 29 29 28 26 24 24 24 24 24 24 23 23 23 22 21 20 20 20 20 19 19 19 19 20 19 18 18 18 19 21 23 24 25 26 26 27 27 26 26 26 27 27 28 29 31 31 32 33 35 37 38 39 40 41 42 42 41 42 42 42
32 31 31 31 30 29 27 26 26 26 26 26 26 25 24 23 23 24 23 22 22 22 22 21 20 21 22 22 21 19 19 20 22 24 25 26 27 28 29 29 28 28 28 29 29 30 31 32 34 34 35 36 38 39 40 41 42 43 43 43 43 43 43
33 32 33 33 31 29 29 28 28 28 28 28 28 27 26 25 26 26 26 25 24 24 24 23 23 23 24 24 23 22 21 22 22 24 26 27 28 29 30 31 31 30 30 31 31 32 33 34 35 36 37 38 39 40 42 43 43 44 45 45 45 45 45
36 34 34 35 34 32 31 30 29 29 29 29 30 29 28 28 29 29 28 27 27 26 26 25 25 25 26 26 26 25 24 23 24 25 27 29 30 31 32 33 33 33 33 33 34 34 35 36 37 38 38 39 40 42 43 44 45 45 46 46 47 46 46
39 37 37 36 36 35 34 32 30 30 30 31 31 30 30 30 30 30 29 29 30 29 29 28 28 28 28 28 28 27 26 25 25 26 28 30 31 32 34 35 35 35 35 35 36 37 37 38 38 39 40 40 41 42 43 45 46 46 47 47 48 48 48
42 41 40 39 38 37 35 34 32 32 32 33 33 32 32 32 31 31 32 31 32 31 31 31 31 31 31 31 30 29 29 28 27 28 29 30 32 34 35 36 37 37 37 38 39 39 40 41 41 41 42 42 43 44 44 45 46 47 48 48 49 49 49
44 44 44 42 41 39 37 36 36 35 34 34 34 35 34 33 33 33 33 33 33 33 33 33 33 34 33 33 33 32 30 30 30 30 31 32 33 35 37 38 39 39 39 40 41 42 43 43 44 45 45 45 44 45 46 46 47 48 48 49 50 50 50
46 46 47 46 44 42 40 40 39 38 37 36 36 37 36 35 35 35 34 34 34 35 34 34 35 35 35 35 35 34 33 32 32 32 33 34 36 37 39 41 42 42 43 43 43 44 45 45 46 47 47 46 46 47 49 49 48 48 49 50 51 51 51
49 49 50 49 48 46 45 44 43 41 40 39 39 39 38 38 38 37 36 36 36 36 36 36 36 36 36 35 35 35 35 35 36 36 36 37 38 39 40 42 44 45 45 45 46 46 46 47 48 48 49 48 48 50 51 50 49 48 49 51 52 53 53
52 52 53 53 51 50 49 47 46 45 44 43 42 41 41 40 40 40 40 39 39 39 38 37 37 38 37 37 37 37 38 39 39 40 40 40 40 41 42 43 45 46 47 48 48 48 49 49 50 50 51 50 51 52 52 51 50 49 50 52 54 54 55
55 56 57 56 53 52 52 50 48 47 46 46 46 44 43 43 43 43 43 42 41 40 39 39 40 40 40 40 40 40 41 41 42 42 43 42 42 42 44 45 46 47 48 49 50 51 51 51 52 53 53 52 53 53 53 53 53 52 53 55 56 57 58
58 58 58 57 55 54 54 52 50 49 48 48 48 46 45 45 46 46 45 44 43 42 41 41 42 42 42 42 43 43 43 43 44 44 45 44 44 44 45 47 48 49 50 51 52 52 53 53 54 54 55 55 55 55 55 55 56 57 57 58 59 60 60
62 61 60 58 55 54 56 55 52 51 50 50 50 48 47 47 47 47 46 46 46 44 43 43 44 45 45 44 45 45 45 45 45 46 47 46 45 45 46 48 49 50 52 53 53 54 54 54 55 56 57 57 56 57 57 58 59 59 59 60 61 62 62
65 63 60 57 56 56 57 57 55 54 53 52 51 50 49 48 48 48 48 47 47 47 46 45 46 47 46 46 47 48 47 47 47 48 49 48 47 47 48 49 50 52 53 54 54 54 55 56 57 58 58 59 59 59 59 60 61 61 61 61 62 62 63
68 65 62 60 59 59 59 59 57 57 56 55 54 53 52 51 51 51 49 48 48 48 48 47 47 48 48 48 48 49 49 49 49 50 51 50 49 49 49 50 51 53 53 54 55 55 56 58 58 58 59 60 61 61 62 62 62 62 62 62 63 63 64
70 68 66 64 62 61 62 61 60 59 58 58 57 57 56 54 54 53 52 51 50 51 51 49 48 48 50 49 49 48 49 51 52 52 53 52 50 49 50 51 52 53 54 55 56 57 59 59 59 59 60 62 63 64 64 65 65 65 64 63 65 66 65
72 71 70 68 65 65 66 65 64 63 62 61 60 59 58 58 57 56 55 55 54 54 53 51 50 51 51 51 50 49 50 51 53 53 52 51 50 50 51 52 54 55 57 58 58 59 60 61 61 61 62 64 65 66 66 67 68 67 66 65 67 68 67
76 74 73 72 70 70 69 69 68 67 66 65 64 61 60 60 59 59 58 58 57 55 54 54 54 53 52 52 52 51 51 51 52 53 52 52 52 52 53 55 57 58 59 60 60 61 61 62 62 63 64 66 67 68 69 69 70 68 67 67 68 68 68
80 79 77 76 75 74 72 72 72 71 70 68 67 65 64 62 61 61 61 61 59 57 56 57 57 55 54 55 55 54 53 53 54 55 56 57 57 57 57 59 60 61 61 62 63 63 64 64 64 65 67 68 70 70 71 71 71 69 68 68 70 69 68
77 81 80 78 78 77 76 75 76 75 74 73 71 69 68 66 64 63 63 62 61 60 59 59 58 56 56 56 56 56 57 57 58 59 60 61 61 61 61 62 63 63 63 64 66 66 66 66 67 68 69 71 72 73 73 73 72 70 69 71 72 70 70
68 75 78 79 80 80 79 79 79 78 77 76 74 73 72 70 68 66 65 64 64 63 61 60 59 57 57 57 58 60 61 62 62 63 64 65 65 65 66 65 66 66 66 67 68 69 68 68 68 69 71 72 73 75 76 75 73 72 73 74 73 71 71
60 66 71 76 80 83 82 81 81 81 79 78 77 76 75 74 72 70 68 67 66 65 64 62 60 59 60 61 63 64 65 65 66 66 67 69 69 69 69 68 68 68 69 70 71 71 70 70 70 71 71 73 74 76 76 75 74 74 75 75 73 72 73
57 60 65 69 74 80 82 81 82 83 82 81 80 79 78 76 75 74 72 70 68 67 66 63 62 62 63 64 66 67 67 68 69 69 70 71 71 70 69 70 71 72 71 72 72 72 71 71 71 72 72 74 75 76 75 74 74 75 75 74 73 73 73
58 58 60 62 67 72 78 81 84 86 85 83 82 81 80 80 79 77 74 73 71 69 67 65 65 65 65 66 69 70 71 72 73 73 73 72 72 72 73 75 76 75 74 74 74 73 73 72 72 73 74 75 76 75 74 73 74 75 73 72 73 73 73
59 58 57 58 61 66 71 76 80 84 84 84 83 83 83 84 83 80 77 75 73 71 68 67 67 68 68 70 73 75 76 76 76 76 75 75 75 76 78 80 80 78 76 75 75 75 74 74 74 74 75 75 76 76 75 74 74 74 72 71 72 73 72
60 60 59 59 60 61 64 67 72 76 80 82 84 85 86 86 85 82 79 77 76 73 70 69 70 72 74 76 77 79 80 79 79 79 79 79 79 80 81 82 83 81 78 77 77 76 75 75 75 75 75 75 76 76 76 75 73 72 71 71 71 71 71
59 60 60 61 61 61 61 62 64 68 73 78 82 85 87 87 86 84 81 80 78 75 73 73 75 77 78 79 80 80 81 81 81 82 82 83 83 83 84 85 85 83 81 79 78 76 76 76 76 75 75 75 76 76 75 74 72 71 71 71 71 70 70
59 59 59 60 61 61 62 62 62 63 66 70 73 77 80 82 84 84 84 82 79 77 76 77 79 79 79 79 80 81 81 82 83 84 85 86 86 87 87 87 86 85 82 80 78 77 76 75 75 74 74 74 75 75 73 72 71 71 71 71 71 71 71
60 59 59 60 60 61 62 63 63 62 61 62 64 65 68 72 75 79 81 80 78 76 78 79 79 79 78 79 80 80 81 81 83 86 87 88 89 90 90 89 88 87 84 82 80 77 75 74 73 72 72 73 74 73 71 71 73 73 72 72 71 71 70
60 60 59 60 60 60 61 61 62 61 60 59 59 59 61 63 65 69 71 71 71 74 77 79 79 78 79 79 79 78 79 81 83 86 89 91 91 91 91 91 90 87 85 83 80 76 73 72 71 70 71 73 72 71 71 73 73 73 72 72 71 70 69
59 60 59 60 60 60 60 60 60 59 59 58 57 57 57 58 59 61 62 62 66 72 76 76 76 77 78 76 72 70 71 76 81 86 89 90 91 92 92 91 88 86 84 81 78 74 71 69 69 71 72 72 71 72 73 73 72 71 70 70 70 69 68
58 58 59 59 58 57 57 56 56 57 58 57 55 54 54 54 54 55 58 61 65 69 71 70 71 72 72 68 65 63 64 67 73 80 84 87 89 91 91 90 86 83 81 77 74 70 67 66 68 71 72 72 72 72 71 69 69 69 68 68 68 67 66
57 57 57 57 55 55 54 54 53 55 56 55 53 53 53 52 52 52 55 58 61 62 64 65 63 62 64 66 70 73 72 70 70 73 77 82 85 87 87 86 82 76 73 72 69 66 64 66 68 69 70 70 70 68 67 67 67 67 67 66 65 64 64
57 57 56 56 55 54 54 53 53 53 53 52 51 51 51 52 51 48 47 49 50 53 57 61 60 59 62 69 76 79 81 80 78 76 78 82 83 83 81 77 71 67 66 66 64 62 62 64 65 65 66 65 64 64 64 64 65 66 66 64 63 63 64
57 58 57 56 55 54 52 51 51 52 51 50 49 50 49 49 46 42 39 40 42 44 50 56 59 58 59 65 70 73 77 81 79 74 74 77 75 71 68 64 60 59 58 56 56 57 59 60 60 59 59 59 59 60 60 61 63 65 64 62 62 64 66
56 58 57 56 55 53 51 50 51 50 49 49 49 47 44 41 39 36 35 37 39 39 41 44 44 42 42 49 58 63 68 72 67 61 64 70 68 63 61 59 57 56 53 52 54 57 57 55 54 54 54 56 56 56 56 59 63 64 63 62 63 66 68
57 57 57 56 55 53 50 50 49 47 47 48 46 41 37 36 35 32 32 35 35 32 31 32 32 31 33 40 50 56 58 59 58 58 64 68 67 65 63 60 59 56 55 56 58 58 55 53 52 53 54 54 53 53 56 60 62 63 62 63 65 68 68

ECMWFFLT1_250_spd_042.txt.gz
Wind_Speed
26 25 24 23 23 24 24 24 24 24 24 24 24 24 24 25 26 27 27 25 23 22 22 21 20 20 19 18 17 17 16 15 14 13 13 13 14 14 14 15 15 16 17 17 17 17 18 18 18 18 19 20 22 23 24 25 26 27 27 28 30 32 33
29 28 27 27 26 26 26 26 25 25 25 24 24 24 25 25 26 26 26 25 24 23 23 22 21 20 20 19 19 18 17 16 15 15 15 15 16 16 15 16 16 17 18 19 19 19 21 22 22 21 21 21 22 24 25 26 27 28 28 29 30 32 34
30 30 30 29 29 28 27 27 26 26 25 25 25 26 26 26 25 25 25 25 25 24 23 22 21 21 21 20 20 19 19 18 17 17 17 17 17 17 17 17 18 18 19 21 21 22 23 24 25 24 22 23 24 25 26 27 28 28 29 29 31 32 34
32 31 30 30 29 29 29 29 28 27 26 26 26 27 26 25 24 25 25 25 25 24 24 23 23 23 22 21 21 20 20 20 19 19 19 19 19 19 19 19 19 20 21 22 23 24 24 26 27 26 24 24 25 26 27 28 29 29 29 31 32 34 35
33 32 30 29 30 30 31 31 30 29 27 27 27 27 26 26 25 26 27 26 25 25 24 24 24 24 24 23 22 21 21 21 21 21 20 20 21 21 21 21 22 23 23 24 26 26 27 28 29 28 26 26 26 28 28 29 30 30 30 32 34 35 37
35 33 31 31 31 32 32 32 32 30 28 27 27 27 27 27 28 29 28 28 27 26 26 26 26 26 26 26 25 24 24 23 23 23 22 23 23 23 23 24 25 26 25 26 28 29 29 30 30 29 28 27 28 29 30 31 32 32 32 33 35 37 39
37 34 33 33 33 32 33 33 33 32 30 29 29 28 28 29 30 31 30 29 29 28 28 29 28 28 28 28 28 28 27 26 26 26 26 26 26 26 26 25 26 27 27 28 29 29 30 31 32 31 30 29 29 30 31 32 33 33 34 35 36 39 40
39 37 36 36 35 34 34 34 34 33 33 32 31 31 31 32 32 32 32 31 30 30 30 31 30 30 30 31 31 30 29 29 29 29 29 28 29 29 28 26 27 27 28 28 29 30 31 32 33 32 31 31 31 32 33 33 34 35 35 36 38 39 41
40 40 40 40 38 37 36 36 35 34 34 34 34 34 34 34 34 35 34 33 32 32 32 32 32 32 33 33 33 32 32 32 32 31 31 31 31 30 29 28 28 29 30 30 30 31 32 33 34 34 33 32 33 35 35 35 35 36 36 37 39 40 43
43 43 44 43 42 41 40 39 37 36 35 35 36 36 37 37 37 37 36 34 34 34 34 33 34 35 35 35 35 34 34 34 34 33 33 32 31 31 30 30 30 31 32 32 32 32 33 34 36 36 34 34 36 37 37 36 36 37 38 39 40 42 44
48 47 47 45 44 44 43 42 41 40 38 38 38 38 38 38 38 37 37 36 36 36 35 35 35 36 36 36 36 36 35 35 35 35 34 33 33 32 32 32 33 34 34 34 34 34 34 35 37 37 35 35 37 39 38 37 37 39 40 41 42 44 45
51 49 48 47 46 46 46 45 44 43 42 41 41 40 40 39 39 39 38 38 38 38 37 36 37 37 37 38 37 37 36 36 36 36 35 35 35 34 34 35 36 36 36 36 36 36 36 36 38 38 36 37 39 40 39 39 40 41 42 43 44 45 47
53 52 50 50 49 48 48 47 46 46 45 45 44 43 43 42 41 41 40 40 39 39 38 38 38 39 39 39 39 38 38 37 37 37 37 37 37 37 38 38 39 39 38 38 38 38 38 38 39 39 39 39 41 42 41 42 42 43 44 44 45 47 48
55 55 53 52 52 52 50 49 49 49 48 48 48 47 46 45 44 44 43 43 42 41 41 41 41 41 41 41 41 41 40 39 39 40 40 40 40 40 41 41 42 41 40 40 40 41 40 40 41 41 41 42 43 43 44 44 45 45 45 46 47 48 49
57 57 57 55 55 55 54 53 52 52 52 52 51 50 49 48 47 47 47 47 46 45 45 44 44 44 44 44 44 44 43 42 42 43 43 43 44 44 44 44 44 43 42 42 42 43 43 43 44 45 45 45 45 45 46 48 47 47 48 48 49 50 50
55 57 58 59 58 58 57 57 56 56 55 55 54 53 52 51 50 50 50 50 50 49 49 48 47 47 47 48 48 47 46 45 45 46 46 46 46 46 47 47 46 45 44 44 45 46 47 46 47 48 48 48 48 48 49 50 49 49 50 50 51 52 53
45 49 52 56 60 61 60 60 60 59 59 59 58 56 55 54 54 53 53 53 53 52 52 51 50 50 50 51 52 51 49 48 48 48 48 49 49 49 49 49 48 47 47 47 47 49 49 49 50 52 51 50 50 50 52 52 50 52 53 53 54 55 55
35 38 41 46 52 58 61 63 63 62 63 64 62 59 58 58 58 57 56 56 56 55 54 53 53 53 53 54 54 53 52 51 51 51 51 52 52 52 52 51 50 50 50 50 50 51 51 53 54 55 54 53 53 53 54 53 53 55 55 55 56 57 58
32 34 36 38 42 47 53 59 62 64 65 66 66 64 63 62 61 60 60 61 60 58 56 55 56 56 55 56 55 55 55 54 53 54 54 55 55 55 55 54 53 53 53 53 54 53 53 55 57 58 57 57 56 56 56 56 56 57 57 58 59 60 60
33 34 36 36 38 41 45 49 55 60 64 67 68 67 66 65 64 65 65 65 64 61 59 58 59 58 58 58 57 57 58 58 57 57 58 57 57 57 57 56 56 56 56 57 57 56 56 57 59 60 60 60 60 59 58 58 59 59 60 61 62 63 63
35 36 36 37 38 41 42 44 47 52 57 62 66 67 68 67 68 69 69 68 67 65 64 63 62 61 61 60 59 60 61 61 61 61 60 60 59 58 58 58 58 59 59 60 61 60 60 60 61 63 63 63 63 62 61 61 61 62 63 63 65 66 65
38 38 37 38 39 41 43 44 44 46 49 54 58 61 64 68 71 72 72 71 69 69 69 67 65 64 63 63 63 63 63 64 64 64 63 62 61 60 60 60 61 61 62 63 64 64 63 63 64 66 66 66 66 65 64 64 64 64 65 66 68 68 67
41 41 40 39 39 42 44 45 45 45 46 47 50 53 57 62 66 69 71 72 72 71 72 71 69 68 67 67 67 67 67 67 67 67 67 66 64 63 63 63 63 64 65 65 67 68 67 67 68 69 68 69 69 68 68 67 67 67 68 69 70 70 68
42 43 42 41 42 43 44 46 46 47 47 47 48 49 51 54 57 60 64 68 70 73 74 74 73 72 72 72 73 73 72 71 70 70 70 70 68 67 66 66 66 67 68 68 69 70 71 71 71 72 72 72 72 71 71 70 69 70 70 72 73 71 70
42 42 42 44 45 45 45 45 46 46 48 49 49 50 50 51 53 55 57 61 65 69 72 73 74 75 76 77 78 78 76 74 73 73 73 73 72 71 70 70 70 70 71 71 71 72 74 75 75 75 76 76 76 75 73 72 72 73 73 74 74 72 71
45 43 43 45 47 48 47 46 45 46 48 49 50 51 51 51 51 52 53 57 59 62 64 68 73 77 80 82 82 81 79 77 76 76 76 76 76 75 74 74 74 74 74 74 75 75 75 77 78 79 79 79 78 76 74 74 75 75 75 77 76 74 73
49 47 45 45 48 50 50 49 48 47 48 49 50 51 51 52 52 51 52 53 54 56 59 64 70 75 79 82 83 83 81 80 80 80 80 79 78 78 79 78 77 77 77 78 79 80 78 79 81 82 81 81 80 78 76 77 77 77 78 79 77 75 74
52 51 49 48 49 51 52 52 51 49 49 50 50 51 52 52 53 54 53 53 53 55 57 61 65 68 72 76 79 81 81 82 82 83 83 82 81 82 83 82 80 79 79 80 82 83 84 83 83 84 83 82 81 80 80 80 79 79 81 81 78 76 75
55 54 53 53 52 52 53 53 53 52 51 50 50 51 52 53 54 55 55 55 55 56 57 58 60 62 64 67 70 73 75 78 80 82 83 84 84 85 87 85 81 80 82 82 83 84 86 88 88 88 86 84 83 83 83 82 81 82 83 81 79 77 75
57 57 57 56 56 55 54 54 54 54 54 52 52 52 53 53 54 55 56 57 58 57 57 57 58 60 61 62 63 65 67 70 73 77 79 81 83 85 87 86 83 81 82 83 84 84 85 87 90 90 87 84 84 84 83 82 82 83 83 81 78 75 73
60 60 60 59 59 57 56 55 54 55 55 55 55 55 55 55 55 55 57 59 59 59 59 58 58 58 59 60 61 62 63 65 67 69 71 74 77 80 81 83 82 81 80 81 83 83 83 84 87 88 86 83 82 82 81 80 80 81 80 77 74 71 67
63 63 62 62 62 61 60 58 57 56 56 56 56 56 56 56 55 56 57 59 60 60 60 59 58 58 58 60 61 61 62 62 62 63 65 67 69 71 74 77 77 76 75 75 76 78 78 78 78 79 79 79 78 78 77 76 76 76 75 71 68 65 62
65 65 65 65 65 64 63 61 60 58 58 58 57 58 58 57 56 56 57 58 59 60 60 59 58 58 58 59 61 62 62 61 61 61 62 63 65 66 68 71 72 71 69 69 68 68 67 66 65 66 68 70 71 72 72 72 73 72 69 64 61 59 59
68 67 67 67 67 67 66 64 63 62 61 61 60 59 59 58 58 58 58 58 59 60 60 59 58 58 58 59 60 61 62 62 62 61 61 62 63 63 65 67 68 66 63 61 59 57 54 51 50 52 55 58 61 64 65 66 67 68 66 60 55 54 54
70 69 69 69 70 70 68 67 66 66 65 64 63 61 60 59 59 60 60 60 61 62 61 60 59 58 58 58 59 60 61 62 62 62 61 60 60 61 63 64 62 59 55 50 47 46 45 42 41 42 44 47 50 55 57 59 60 63 65 60 54 51 48
72 72 72 72 72 71 71 70 69 68 67 66 65 64 62 61 62 62 62 62 63 64 63 61 61 59 58 58 58 58 59 60 61 61 60 58 59 61 61 58 55 51 45 38 35 35 37 37 39 41 42 44 44 45 48 50 53 59 64 62 56 50 46
77 76 76 75 74 73 73 72 71 70 69 68 67 66 65 64 64 64 64 64 65 65 65 63 62 60 59 59 58 57 57 57 57 57 56 56 59 58 54 51 49 44 38 34 34 34 35 37 40 42 44 45 43 41 43 46 49 55 65 68 61 52 47
81 80 78 77 76 76 75 73 72 71 70 70 70 68 67 66 66 66 65 65 66 66 66 65 63 62 61 59 58 57 54 53 54 53 52 55 58 53 46 43 42 39 36 35 35 35 38 44 47 48 51 49 39 33 39 45 47 50 59 66 65 58 52

ECMWFFLT1_250_spd_045.txt.gz
Wind_Speed
24 22 21 22 23 24 24 23 23 24 25 26 26 25 25 25 24 23 23 25 26 26 26 25 25 24 23 22 22 21 19 18 17 16 15 14 13 12 12 11 10 10 10 10 11 11 12 14 15 16 17 18 18 19 20 20 20 21 21 22 22 23 25
28 26 25 24 24 24 25 26 26 26 26 26 26 26 25 25 24 24 23 23 25 27 27 27 26 25 24 24 24 23 21 20 19 18 17 16 15 15 14 13 12 11 12 13 13 14 14 15 17 18 19 20 20 21 22 22 22 23 23 24 24 24 26
30 30 29 28 27 26 25 26 27 27 27 26 26 26 26 25 25 24 23 23 25 27 29 28 27 27 26 26 25 24 23 22 21 20 19 19 18 17 17 15 14 13 14 15 16 16 16 17 18 20 21 21 22 22 23 24 24 24 25 25 25 26 27
31 31 31 31 30 28 27 27 28 28 28 28 28 28 27 26 24 24 24 25 26 28 28 28 27 28 28 27 26 25 24 24 23 22 21 21 20 20 19 18 16 16 16 16 18 18 19 19 19 21 22 22 22 23 24 25 26 26 27 27 27 27 28
31 31 32 32 32 32 31 31 30 30 30 30 29 29 28 26 25 25 25 26 26 27 27 27 28 28 27 27 26 26 25 25 25 24 23 22 22 22 21 20 19 19 19 19 20 20 21 21 21 21 22 22 22 23 25 27 28 28 29 29 29 29 29
32 31 31 32 33 33 33 32 32 31 31 31 30 29 28 26 26 26 26 27 27 27 27 28 29 28 27 27 27 26 26 25 25 25 25 24 24 24 23 22 22 22 22 22 23 23 22 22 22 23 23 23 23 24 26 28 30 30 31 31 31 31 30
35 33 32 32 32 32 33 34 33 32 31 31 30 29 28 27 28 28 28 29 29 28 28 29 29 28 28 28 28 28 28 27 27 27 27 27 26 26 25 25 25 25 25 26 25 25 24 23 24 25 25 25 24 25 27 29 31 32 32 32 32 32 31
36 35 34 33 32 31 33 33 33 33 32 31 30 29 29 29 29 29 30 30 29 29 29 29 29 29 29 30 31 30 30 29 29 29 29 29 29 29 28 27 27 27 28 29 28 27 26 25 25 26 27 27 26 26 28 30 33 33 33 33 34 34 34
36 36 35 35 34 33 34 34 33 33 32 31 30 30 31 31 31 31 31 31 30 30 31 31 31 30 30 31 32 32 32 32 31 31 31 31 31 31 30 29 29 29 30 31 30 28 28 27 27 28 29 29 29 28 29 32 34 34 34 34 35 36 36
38 37 37 36 36 36 36 35 34 34 33 33 33 33 33 34 34 33 33 32 32 33 33 32 32 32 32 33 34 34 34 34 33 33 33 33 33 33 32 32 32 31 32 32 31 30 30 29 29 30 31 31 31 31 32 34 36 36 36 36 37 38 38
42 41 40 39 39 39 39 37 37 36 35 35 35 35 35 36 35 35 34 34 34 35 34 33 33 34 35 36 36 36 36 36 36 36 35 35 35 35 34 34 34 33 33 33 33 33 32 31 31 32 33 33 33 33 34 36 37 38 38 39 40 40 41
45 45 44 43 42 41 40 40 39 38 38 37 37 37 37 37 37 36 36 36 36 37 36 35 36 36 37 38 38 39 39 38 37 37 37 37 36 36 36 35 35 34 34 34 34 35 34 34 34 34 35 36 36 36 36 37 39 40 40 41 42 42 43
48 48 47 46 45 43 42 42 41 41 40 40 40 40 40 39 39 38 38 38 38 38 37 36 37 38 39 40 40 41 41 40 39 38 38 37 37 37 37 37 36 36 35 36 36 37 36 36 36 36 37 38 39 38 38 39 40 41 42 43 44 44 44
50 50 49 48 47 47 46 44 44 43 43 43 44 43 43 43 42 41 41 41 40 39 39 38 38 39 40 40 41 43 43 41 40 39 39 38 38 38 39 38 38 38 38 38 39 39 38 38 38 38 39 41 41 40 40 41 42 43 44 45 46 46 46
50 50 50 51 50 50 49 49 48 47 46 46 46 46 46 46 45 45 44 44 43 42 42 41 41 41 41 42 43 44 44 42 41 41 40 40 40 40 40 41 41 41 41 41 41 41 41 41 41 41 41 42 43 43 43 44 45 45 45 47 48 48 48
45 47 48 50 51 52 53 53 52 51 50 49 49 49 48 48 48 47 47 47 46 46 45 44 44 44 44 44 45 46 45 44 43 43 43 43 43 43 44 44 44 44 45 45 44 44 43 43 43 43 43 44 45 45 45 46 47 47 47 48 50 50 50
39 42 43 45 48 51 53 54 54 53 52 52 52 52 51 51 50 49 49 49 49 49 48 47 47 47 46 47 47 48 47 47 46 46 46 47 47 47 47 47 47 48 48 48 48 46 45 45 45 45 45 46 47 48 49 49 50 50 50 51 52 52 52
34 38 39 39 41 44 47 50 53 54 55 55 55 55 55 54 53 51 51 52 52 52 51 50 50 50 49 50 50 50 50 51 50 50 49 50 50 50 50 50 50 51 52 51 50 49 48 47 47 47 47 48 50 51 52 52 53 53 53 53 54 54 54
32 33 35 35 34 36 39 42 46 50 53 55 57 57 57 57 55 55 56 56 55 53 52 52 52 52 52 52 52 52 53 54 54 53 53 53 53 53 52 52 53 54 54 54 53 51 50 50 49 49 50 51 52 53 54 55 55 56 56 56 56 56 56
31 32 33 33 33 33 35 37 39 42 46 50 53 56 58 58 58 58 58 58 57 56 55 55 56 55 55 55 54 55 56 56 56 57 56 56 55 55 54 55 56 56 56 56 55 53 52 52 51 51 52 53 54 55 56 58 58 58 58 59 59 59 58
31 31 32 33 34 35 35 36 38 39 41 44 47 50 53 56 58 59 59 60 60 60 60 60 59 58 58 58 58 58 59 59 59 60 59 59 58 57 56 57 58 58 58 58 56 55 55 54 53 54 54 55 56 57 59 60 61 61 61 61 62 61 60
31 31 32 33 35 36 37 38 38 39 40 41 43 45 47 50 53 55 57 59 60 61 62 63 62 62 63 63 63 63 63 62 63 63 63 62 61 60 59 60 60 61 61 59 58 57 57 57 57 57 57 57 58 59 62 63 64 64 64 64 65 64 62
32 32 32 33 35 36 37 38 39 39 40 41 43 44 45 45 47 49 52 54 56 58 61 62 64 66 67 67 67 67 67 66 66 67 66 66 66 65 64 64 63 63 63 62 61 60 60 60 61 60 60 61 61 63 65 66 67 67 67 68 68 67 66
34 33 33 33 34 36 37 38 39 40 40 41 43 44 44 43 44 46 47 49 51 53 55 57 61 65 68 68 69 69 68 69 70 70 70 69 70 70 69 68 67 66 65 65 65 64 64 64 64 64 64 64 65 67 69 69 70 70 71 71 71 70 69
37 36 35 35 35 35 36 38 39 40 41 42 43 44 44 43 44 44 45 46 48 49 51 54 57 60 62 63 64 64 65 67 70 71 72 72 73 73 73 72 70 69 69 68 69 69 68 67 66 67 69 69 69 71 72 71 72 73 74 74 73 73 71
42 40 39 38 37 36 37 38 38 39 40 42 44 45 45 45 45 45 46 46 46 47 49 51 53 54 54 55 56 57 59 62 64 66 68 70 71 72 73 73 72 72 72 71 72 72 72 71 70 71 72 73 73 74 74 73 74 75 76 76 75 73 73
46 44 43 42 41 39 38 39 39 39 40 41 43 45 46 46 47 47 47 47 47 48 48 49 49 49 50 51 52 53 55 57 59 61 63 64 67 69 70 71 71 72 72 73 73 74 73 72 72 73 74 75 76 76 76 76 76 76 77 78 75 72 72
49 48 47 46 45 43 42 42 42 42 42 42 43 44 45 46 47 48 48 49 49 50 49 49 49 50 50 51 52 52 53 54 56 58 59 61 63 64 66 67 67 68 69 71 72 73 73 71 71 73 75 76 76 76 77 77 76 75 76 77 74 70 68
52 51 50 50 49 48 47 46 44 44 45 45 45 46 46 46 47 48 49 50 51 52 52 52 52 53 52 53 53 53 53 54 55 56 57 58 60 61 62 64 64 64 65 67 68 69 69 68 68 69 72 73 74 74 74 74 73 71 71 73 71 65 59
54 53 53 53 52 51 51 50 48 47 47 47 47 48 48 48 48 48 49 50 52 53 53 53 53 54 54 55 55 56 56 56 56 56 57 58 59 59 60 62 62 62 62 64 65 65 65 64 63 63 65 68 69 69 70 69 68 66 65 66 64 58 53
56 55 55 55 54 54 53 52 51 51 50 50 50 50 51 51 51 50 50 51 51 53 53 53 54 54 55 56 56 57 58 58 58 58 58 59 59 59 59 60 61 61 60 60 61 62 61 61 61 59 59 60 62 64 64 63 61 60 60 58 55 53 52
58 58 57 57 56 55 55 54 54 53 53 53 52 52 53 53 53 53 53 52 52 53 54 55 55 56 56 56 57 57 58 59 60 61 61 61 60 59 59 60 60 60 60 59 59 60 60 59 58 56 55 56 57 59 59 56 54 54 54 52 50 49 49
61 60 59 58 58 57 57 56 56 56 56 56 56 56 56 56 56 57 57 56 55 55 55 55 56 57 58 58 58 58 58 59 61 62 63 62 61 60 60 60 59 59 58 58 58 59 59 59 57 54 52 53 54 55 53 50 47 47 47 46 44 42 42
63 62 62 61 60 60 59 59 59 59 59 59 59 59 59 59 59 60 60 60 59 58 57 57 57 58 58 58 58 59 60 61 62 63 64 64 63 61 60 59 59 59 58 58 58 58 58 57 55 53 52 52 52 52 47 42 41 41 43 43 42 41 40
66 65 64 63 62 62 62 62 62 62 62 62 62 62 63 63 63 63 63 62 62 61 60 60 59 59 58 58 59 60 61 62 63 65 66 66 65 62 60 58 58 58 57 58 59 58 58 57 54 51 51 49 48 47 43 41 42 44 44 41 39 41 42
69 68 67 67 66 65 65 65 65 65 65 66 66 66 67 67 67 66 66 65 65 64 63 63 62 61 60 60 60 61 61 63 64 65 66 67 66 64 61 59 58 57 56 57 58 58 59 57 53 50 49 46 43 42 43 45 47 47 44 41 39 41 46
71 71 70 69 69 69 68 68 69 69 69 70 71 71 71 71 70 70 69 69 68 67 66 66 65 64 63 62 62 63 63 63 64 65 67 68 67 65 62 60 58 56 55 55 56 57 58 57 52 49 48 45 43 45 47 48 48 47 46 45 44 44 47
75 74 74 73 73 72 72 72 73 73 74 74 75 74 74 74 73 73 72 72 71 70 69 69 67 66 66 65 65 65 65 65 66 67 68 69 69 66 63 59 57 56 55 55 55 55 56 55 52 50 50 49 48 52 54 52 49 48 48 50 51 49 49

ECMWFFLT1_250_spd_048.txt.gz
Wind_Speed
21 20 20 22 25 27 30 33 35 37 37 34 32 31 31 29 28 28 28 28 27 28 28 27 26 25 25 25 24 23 22 21 19 18 17 15 14 13 12 12 10 8 8 7 7 7 8 9 9 10 11 12 14 15 16 17 17 17 17 18 19 21 23
25 22 22 23 24 26 29 33 37 39 39 36 34 32 31 29 29 28 27 26 27 28 29 28 27 26 25 26 26 25 24 23 21 20 19 18 17 16 16 14 12 11 10 10 10 10 11 11 12 13 14 15 16 17 18 18 18 18 18 18 19 21 23
27 26 25 24 24 25 27 30 35 38 39 38 36 35 32 30 29 27 25 24 25 27 28 29 28 27 26 26 27 27 26 24 23 21 20 20 20 19 18 17 15 13 13 13 13 13 13 14 15 15 16 17 17 18 19 19 20 19 19 19 20 21 23
30 30 28 26 26 26 27 30 33 35 37 38 38 37 33 30 28 26 23 22 23 24 26 27 27 28 27 28 29 28 27 26 24 23 23 22 22 22 21 19 18 16 16 16 16 16 16 17 18 18 18 19 19 20 20 21 22 22 22 21 21 22 23
31 32 31 29 28 28 29 30 32 34 35 37 37 36 35 32 30 28 26 24 24 25 25 25 26 28 30 29 29 28 27 27 27 26 25 24 24 24 23 22 21 20 19 19 19 19 20 20 21 21 21 21 21 21 22 23 23 24 24 24 23 23 24
33 33 33 33 31 31 31 31 31 32 33 33 32 32 31 30 30 29 27 26 26 26 25 25 26 28 29 30 29 28 28 29 29 28 27 27 26 26 25 24 23 22 22 22 22 22 22 23 23 24 24 23 23 23 23 24 25 26 26 26 25 25 25
35 34 34 34 34 33 33 31 31 31 31 30 29 28 27 27 28 28 27 27 27 27 26 27 27 27 28 29 29 30 30 29 29 29 29 28 28 27 26 25 24 24 24 24 25 25 25 25 26 26 26 25 24 25 25 26 26 27 28 27 27 27 27
37 36 35 35 35 35 35 33 31 30 30 29 29 29 28 29 30 29 29 30 29 28 29 29 28 27 27 27 28 30 30 30 30 30 29 29 29 28 27 27 26 26 27 27 27 27 28 28 28 28 28 27 26 27 27 27 28 29 30 29 29 29 29
38 37 36 35 35 35 35 35 34 32 31 30 31 31 31 32 32 32 32 31 30 31 31 30 28 27 26 27 28 29 30 30 31 30 30 30 30 29 29 29 29 29 30 30 29 30 30 29 29 29 29 28 27 28 29 30 30 31 31 31 32 31 31
39 38 37 36 34 33 33 35 36 35 34 34 33 34 34 35 35 34 34 33 33 33 33 30 29 28 28 29 29 29 30 31 31 31 31 31 31 31 32 32 32 32 32 32 31 31 31 31 30 30 29 29 29 29 31 32 32 32 33 33 34 34 33
43 42 40 39 37 36 35 36 36 37 38 37 37 37 37 37 37 36 36 35 35 35 33 31 30 30 30 31 31 31 32 32 32 32 32 32 32 33 33 34 34 33 33 33 33 33 32 32 31 31 31 31 31 31 32 33 34 34 35 35 36 36 36
47 45 43 42 41 41 39 37 37 38 38 38 38 38 38 39 39 39 38 38 38 37 34 33 32 32 32 33 33 33 34 34 34 34 33 33 34 34 35 35 35 35 35 35 35 34 34 33 32 32 32 32 33 33 34 35 36 37 37 37 38 38 38
49 47 46 45 44 43 43 42 41 41 40 39 38 38 38 39 40 40 40 40 39 38 36 35 35 35 35 35 35 36 37 37 36 35 35 35 36 36 36 36 36 36 36 35 35 35 35 35 34 34 34 34 35 36 37 38 39 39 39 39 40 41 41
52 50 49 47 46 45 46 46 46 45 43 42 41 40 40 40 40 40 41 40 40 39 38 38 37 37 37 38 39 40 40 39 38 37 37 37 37 38 37 37 37 37 36 36 37 37 37 36 36 36 36 36 37 38 39 40 41 41 41 41 41 43 44
54 52 51 50 49 48 48 48 47 46 45 44 44 43 43 43 43 42 42 42 41 40 40 39 39 39 39 39 40 42 42 41 40 40 39 39 40 39 39 39 39 38 38 38 38 38 38 38 38 38 38 39 40 40 41 42 43 43 43 43 43 45 46
54 54 53 52 52 51 50 49 48 47 46 46 46 46 46 46 46 45 45 44 43 42 41 40 40 40 40 40 42 42 42 41 41 41 41 41 41 41 41 41 40 40 39 39 39 40 40 40 40 40 41 41 42 43 43 44 44 45 45 45 46 47 48
53 55 55 55 54 53 53 52 51 50 48 48 47 47 47 48 48 47 47 46 45 44 43 43 43 43 43 44 44 43 43 43 43 43 43 43 43 42 42 42 42 42 42 42 42 42 42 43 43 43 43 44 44 44 45 45 46 46 47 48 49 49 50
47 51 54 56 56 55 55 55 54 53 51 50 50 49 49 50 49 48 48 47 47 46 45 45 46 46 47 47 46 45 46 46 46 46 46 46 45 45 44 44 44 45 46 46 46 45 45 46 46 45 45 46 46 47 47 47 48 49 49 50 51 51 52
40 44 49 53 55 56 56 56 55 55 54 53 53 52 52 52 51 51 50 49 48 47 47 48 49 49 49 49 49 49 49 48 48 49 49 48 48 47 47 46 47 48 48 49 48 48 48 48 48 47 47 48 49 49 49 50 51 51 52 53 53 54 55
36 39 42 46 49 52 54 55 55 56 56 55 55 55 54 54 54 53 53 52 51 51 51 51 51 51 51 51 51 52 52 51 51 51 51 51 50 49 49 49 50 50 51 51 51 50 50 51 50 50 50 51 51 51 51 52 54 54 55 55 56 57 57
35 36 38 39 42 45 47 49 51 52 53 54 54 54 55 55 55 55 54 54 54 54 55 55 55 54 54 54 54 54 54 53 53 53 53 53 53 52 53 53 53 53 53 53 53 53 53 53 53 53 54 54 54 53 54 56 57 58 58 59 59 60 60
38 37 37 38 39 40 42 43 45 47 49 50 50 51 52 52 53 53 54 54 55 56 56 57 57 57 57 57 57 57 57 57 56 56 55 55 56 57 57 57 56 56 56 56 56 56 56 56 57 57 57 57 57 57 58 59 60 61 62 62 63 63 63
40 39 39 39 40 40 40 40 41 42 43 44 45 46 47 47 48 49 49 50 52 53 54 55 56 56 57 57 58 58 59 58 58 57 57 58 59 60 61 61 60 60 59 59 60 60 59 60 60 61 61 61 61 61 62 63 63 65 66 66 66 66 66
40 40 40 40 40 40 40 39 39 39 39 40 40 41 42 42 43 43 44 45 47 48 49 50 51 52 52 53 54 55 56 55 56 56 57 58 59 60 61 62 62 62 62 62 62 62 62 63 63 63 64 64 65 65 65 65 66 67 68 69 69 69 68
40 39 39 39 39 39 39 39 38 37 37 37 37 37 37 38 38 39 39 40 41 42 43 44 45 45 46 48 49 50 50 50 51 53 54 54 55 56 57 57 57 58 59 59 59 59 60 61 62 62 62 62 63 63 63 63 64 65 67 68 69 69 68
42 41 40 40 39 39 39 39 38 37 36 35 35 35 35 36 36 36 37 37 37 38 39 39 40 40 42 43 44 45 45 45 46 47 48 49 49 50 51 52 52 52 52 53 53 53 54 55 55 56 57 57 57 56 56 57 58 59 61 63 63 64 64
45 44 43 42 42 41 40 39 38 37 36 35 35 35 35 36 36 36 36 36 36 37 38 38 38 39 40 41 42 43 43 43 43 43 44 45 46 46 47 48 48 48 48 49 50 50 50 51 51 51 52 53 54 53 53 53 54 54 57 59 59 59 59
48 47 46 45 44 44 42 41 40 38 37 37 37 36 36 36 36 36 37 37 37 37 37 37 38 39 40 41 42 42 42 43 43 43 43 44 45 45 46 46 46 46 47 48 48 48 48 49 49 49 50 51 52 53 53 53 53 53 54 56 57 56 56
51 50 49 48 47 46 45 45 43 42 41 41 40 40 39 38 38 39 39 39 40 40 39 39 40 40 41 41 42 42 43 43 44 44 44 45 46 47 47 47 47 48 48 48 48 47 47 48 49 48 49 51 52 53 54 54 53 53 54 56 56 56 56
54 53 52 51 50 49 48 48 47 46 46 45 44 44 43 42 42 42 43 43 42 42 43 43 43 42 43 43 43 43 43 44 45 45 46 46 47 48 49 50 50 50 50 50 49 49 48 49 49 49 49 50 51 52 53 53 52 52 53 55 57 57 57
57 56 55 55 54 53 51 51 50 50 49 49 48 47 47 47 46 46 46 46 46 46 46 46 46 46 46 46 45 45 44 44 45 47 47 48 48 49 51 52 52 53 53 53 52 51 51 51 51 50 50 51 52 52 52 51 49 49 51 54 56 58 58
60 59 58 57 57 56 55 54 53 52 52 51 51 50 50 50 50 49 49 49 49 49 49 49 49 49 49 49 49 48 47 47 47 47 48 49 49 50 52 53 54 55 55 55 55 55 54 53 52 51 51 51 52 53 52 49 48 48 50 52 55 58 58
62 62 61 60 59 58 58 57 56 55 54 54 53 53 52 52 52 52 51 51 51 51 51 52 52 52 52 52 52 51 51 50 49 49 50 50 51 51 52 53 54 55 56 57 58 58 57 56 54 52 51 51 52 53 52 50 48 49 51 53 54 56 57
65 64 63 62 61 61 60 60 59 58 57 56 56 55 55 55 54 54 54 54 54 54 54 54 55 55 55 55 55 54 53 53 53 53 52 52 53 53 54 54 55 56 57 58 59 59 59 59 57 56 55 53 52 51 51 49 49 51 52 53 54 55 57
66 65 64 64 63 63 62 61 61 60 59 59 58 58 58 58 58 57 57 57 57 57 57 58 58 59 58 58 58 57 56 56 56 56 55 55 55 55 56 57 58 58 58 59 60 61 61 61 60 59 58 56 53 52 50 48 49 52 53 52 53 56 57
68 67 67 66 66 65 64 63 63 62 61 61 61 61 61 61 61 61 61 60 61 61 61 61 61 61 61 61 61 60 59 59 59 59 59 58 58 58 59 59 60 60 60 61 62 62 63 63 62 61 59 56 53 52 50 48 50 54 55 53 54 57 58
71 70 70 69 68 67 66 66 65 64 64 64 63 63 64 64 64 64 64 65 65 65 65 65 64 64 64 64 63 63 63 62 62 62 62 62 62 61 62 62 62 62 62 63 63 64 64 64 64 62 60 57 53 51 50 50 51 54 55 56 57 58 58
73 73 72 72 71 70 69 69 68 67 67 66 66 66 66 66 66 67 67 68 68 68 68 68 68 67 67 67 66 66 65 65 65 65 65 66 66 65 65 65 65 65 65 65 65 65 65 65 65 64 61 58 54 50 49 50 51 53 55 58 60 60 58